<?xml version="1.0" encoding="UTF-8" standalone="yes"?>
<gpx
 xmlns="http://www.topografix.com/GPX/1/1"
 creator="OziExplorer Version 3956f - http://www.oziexplorer.com"
 version="1.1"
 xmlns:xsi="http://www.w3.org/2001/XMLSchema-instance"
 xsi:schemaLocation="http://www.topografix.com/GPX/1/1 http://www.topografix.com/GPX/1/1/gpx.xsd">
<metadata>
 <time>2024-01-10T14:32:44Z</time>
 <bounds minlat="31.137630" minlon="35.194590" maxlat="31.248282" maxlon="35.369920"/>
</metadata>
<wpt lat="31.2190700" lon="35.3168100">
 <time>2024-01-10T15:21:45.532Z</time>
 <name>SokrNaDor#31</name>
 <sym>Flag, Red</sym>
</wpt>
<wpt lat="31.1478882" lon="35.3697712">
 <time>2024-01-10T13:23:34.338Z</time>
 <name>Fin</name>
 <sym>Flag, Red</sym>
</wpt>
<wpt lat="31.2482818" lon="35.1982600">
 <time>2024-01-10T13:24:27.958Z</time>
 <name>Start</name>
 <sym>Flag, Red</sym>
</wpt>
<trk>
 <name>AradKvish#31Zohar</name>
 <desc>AradKvish#31Zohar</desc>
<trkseg>
<trkpt lat="31.2480800" lon="35.1981600">
<ele>555.280029</ele>
<time>2024-01-10T16:32:44.698Z</time>
</trkpt>
<trkpt lat="31.2478500" lon="35.1981200">
<ele>553.830017</ele>
<time>2024-01-10T16:32:44.698Z</time>
</trkpt>
<trkpt lat="31.2478000" lon="35.1980500">
<ele>553.239990</ele>
<time>2024-01-10T16:32:44.698Z</time>
</trkpt>
<trkpt lat="31.2477600" lon="35.1977200">
<ele>552.989990</ele>
<time>2024-01-10T16:32:44.698Z</time>
</trkpt>
<trkpt lat="31.2477000" lon="35.1976000">
<ele>552.820007</ele>
<time>2024-01-10T16:32:44.698Z</time>
</trkpt>
<trkpt lat="31.2476500" lon="35.1975800">
<ele>552.669983</ele>
<time>2024-01-10T16:32:44.698Z</time>
</trkpt>
<trkpt lat="31.2471200" lon="35.1975700">
<ele>551.090027</ele>
<time>2024-01-10T16:32:44.698Z</time>
</trkpt>
<trkpt lat="31.2469800" lon="35.1975400">
<ele>551.500000</ele>
<time>2024-01-10T16:32:44.698Z</time>
</trkpt>
<trkpt lat="31.2462900" lon="35.1975500">
<ele>555.659973</ele>
<time>2024-01-10T16:32:44.698Z</time>
</trkpt>
<trkpt lat="31.2444000" lon="35.1970000">
<ele>569.899963</ele>
<time>2024-01-10T16:32:44.698Z</time>
</trkpt>
<trkpt lat="31.2432500" lon="35.1966200">
<ele>566.830017</ele>
<time>2024-01-10T16:32:44.698Z</time>
</trkpt>
<trkpt lat="31.2428500" lon="35.1965300">
<ele>570.579956</ele>
<time>2024-01-10T16:32:44.699Z</time>
</trkpt>
<trkpt lat="31.2421000" lon="35.1962700">
<ele>564.010010</ele>
<time>2024-01-10T16:32:44.699Z</time>
</trkpt>
<trkpt lat="31.2413100" lon="35.1960500">
<ele>563.559998</ele>
<time>2024-01-10T16:32:44.699Z</time>
</trkpt>
<trkpt lat="31.2411200" lon="35.1959600">
<ele>563.010010</ele>
<time>2024-01-10T16:32:44.699Z</time>
</trkpt>
<trkpt lat="31.2393600" lon="35.1954700">
<ele>566.109985</ele>
<time>2024-01-10T16:32:44.699Z</time>
</trkpt>
<trkpt lat="31.2367200" lon="35.1946400">
<ele>579.590027</ele>
<time>2024-01-10T16:32:44.699Z</time>
</trkpt>
<trkpt lat="31.2363900" lon="35.1946100">
<ele>580.000000</ele>
<time>2024-01-10T16:32:44.699Z</time>
</trkpt>
<trkpt lat="31.2358700" lon="35.1945900">
<ele>575.459961</ele>
<time>2024-01-10T16:32:44.699Z</time>
</trkpt>
<trkpt lat="31.2352400" lon="35.1946400">
<ele>567.059998</ele>
<time>2024-01-10T16:32:44.699Z</time>
</trkpt>
<trkpt lat="31.2349100" lon="35.1947400">
<ele>567.570007</ele>
<time>2024-01-10T16:32:44.699Z</time>
</trkpt>
<trkpt lat="31.2346500" lon="35.1948600">
<ele>567.640015</ele>
<time>2024-01-10T16:32:44.699Z</time>
</trkpt>
<trkpt lat="31.2345000" lon="35.1949800">
<ele>569.510010</ele>
<time>2024-01-10T16:32:44.699Z</time>
</trkpt>
<trkpt lat="31.2343300" lon="35.1950600">
<ele>569.400024</ele>
<time>2024-01-10T16:32:44.699Z</time>
</trkpt>
<trkpt lat="31.2338400" lon="35.1955000">
<ele>571.539978</ele>
<time>2024-01-10T16:32:44.699Z</time>
</trkpt>
<trkpt lat="31.2333400" lon="35.1960900">
<ele>575.770020</ele>
<time>2024-01-10T16:32:44.699Z</time>
</trkpt>
<trkpt lat="31.2331200" lon="35.1963900">
<ele>574.940002</ele>
<time>2024-01-10T16:32:44.699Z</time>
</trkpt>
<trkpt lat="31.2328500" lon="35.1969800">
<ele>578.100037</ele>
<time>2024-01-10T16:32:44.699Z</time>
</trkpt>
<trkpt lat="31.2327500" lon="35.1971100">
<ele>578.790039</ele>
<time>2024-01-10T16:32:44.699Z</time>
</trkpt>
<trkpt lat="31.2324700" lon="35.1971300">
<ele>579.109985</ele>
<time>2024-01-10T16:32:44.699Z</time>
</trkpt>
<trkpt lat="31.2323800" lon="35.1971000">
<ele>579.250000</ele>
<time>2024-01-10T16:32:44.699Z</time>
</trkpt>
<trkpt lat="31.2323100" lon="35.1968600">
<ele>578.650024</ele>
<time>2024-01-10T16:32:44.700Z</time>
</trkpt>
<trkpt lat="31.2321600" lon="35.1966300">
<ele>579.979980</ele>
<time>2024-01-10T16:32:44.700Z</time>
</trkpt>
<trkpt lat="31.2319400" lon="35.1966000">
<ele>583.720032</ele>
<time>2024-01-10T16:32:44.700Z</time>
</trkpt>
<trkpt lat="31.2317400" lon="35.1966900">
<ele>581.780029</ele>
<time>2024-01-10T16:32:44.700Z</time>
</trkpt>
<trkpt lat="31.2309400" lon="35.1967200">
<ele>585.820007</ele>
<time>2024-01-10T16:32:44.700Z</time>
</trkpt>
<trkpt lat="31.2307000" lon="35.1968900">
<ele>589.080017</ele>
<time>2024-01-10T16:32:44.700Z</time>
</trkpt>
<trkpt lat="31.2304500" lon="35.1972100">
<ele>592.500000</ele>
<time>2024-01-10T16:32:44.700Z</time>
</trkpt>
<trkpt lat="31.2303100" lon="35.1976400">
<ele>591.119995</ele>
<time>2024-01-10T16:32:44.700Z</time>
</trkpt>
<trkpt lat="31.2301800" lon="35.1982600">
<ele>591.049988</ele>
<time>2024-01-10T16:32:44.700Z</time>
</trkpt>
<trkpt lat="31.2299800" lon="35.1987900">
<ele>590.250000</ele>
<time>2024-01-10T16:32:44.700Z</time>
</trkpt>
<trkpt lat="31.2297700" lon="35.1990700">
<ele>590.650024</ele>
<time>2024-01-10T16:32:44.700Z</time>
</trkpt>
<trkpt lat="31.2296700" lon="35.1994900">
<ele>594.010010</ele>
<time>2024-01-10T16:32:44.700Z</time>
</trkpt>
<trkpt lat="31.2296200" lon="35.1999000">
<ele>595.000000</ele>
<time>2024-01-10T16:32:44.700Z</time>
</trkpt>
<trkpt lat="31.2293900" lon="35.2005500">
<ele>598.780029</ele>
<time>2024-01-10T16:32:44.700Z</time>
</trkpt>
<trkpt lat="31.2293100" lon="35.2010200">
<ele>596.479980</ele>
<time>2024-01-10T16:32:44.700Z</time>
</trkpt>
<trkpt lat="31.2290000" lon="35.2018000">
<ele>588.349976</ele>
<time>2024-01-10T16:32:44.700Z</time>
</trkpt>
<trkpt lat="31.2287400" lon="35.2020600">
<ele>589.010010</ele>
<time>2024-01-10T16:32:44.700Z</time>
</trkpt>
<trkpt lat="31.2285000" lon="35.2025900">
<ele>584.090027</ele>
<time>2024-01-10T16:32:44.700Z</time>
</trkpt>
<trkpt lat="31.2284400" lon="35.2033600">
<ele>589.000000</ele>
<time>2024-01-10T16:32:44.700Z</time>
</trkpt>
<trkpt lat="31.2276300" lon="35.2048600">
<ele>599.160034</ele>
<time>2024-01-10T16:32:44.700Z</time>
</trkpt>
<trkpt lat="31.2274100" lon="35.2053600">
<ele>600.280029</ele>
<time>2024-01-10T16:32:44.701Z</time>
</trkpt>
<trkpt lat="31.2270400" lon="35.2058800">
<ele>598.869995</ele>
<time>2024-01-10T16:32:44.701Z</time>
</trkpt>
<trkpt lat="31.2268100" lon="35.2063600">
<ele>601.289978</ele>
<time>2024-01-10T16:32:44.701Z</time>
</trkpt>
<trkpt lat="31.2267100" lon="35.2067400">
<ele>605.099976</ele>
<time>2024-01-10T16:32:44.701Z</time>
</trkpt>
<trkpt lat="31.2264500" lon="35.2072500">
<ele>602.239990</ele>
<time>2024-01-10T16:32:44.701Z</time>
</trkpt>
<trkpt lat="31.2264300" lon="35.2076100">
<ele>605.840027</ele>
<time>2024-01-10T16:32:44.701Z</time>
</trkpt>
<trkpt lat="31.2263300" lon="35.2078400">
<ele>607.239990</ele>
<time>2024-01-10T16:32:44.701Z</time>
</trkpt>
<trkpt lat="31.2261400" lon="35.2079700">
<ele>604.419983</ele>
<time>2024-01-10T16:32:44.701Z</time>
</trkpt>
<trkpt lat="31.2257200" lon="35.2084600">
<ele>600.380005</ele>
<time>2024-01-10T16:32:44.701Z</time>
</trkpt>
<trkpt lat="31.2255900" lon="35.2085400">
<ele>598.719971</ele>
<time>2024-01-10T16:32:44.701Z</time>
</trkpt>
<trkpt lat="31.2255300" lon="35.2087500">
<ele>599.860046</ele>
<time>2024-01-10T16:32:44.701Z</time>
</trkpt>
<trkpt lat="31.2251000" lon="35.2093400">
<ele>604.330017</ele>
<time>2024-01-10T16:32:44.701Z</time>
</trkpt>
<trkpt lat="31.2249400" lon="35.2097300">
<ele>608.080017</ele>
<time>2024-01-10T16:32:44.701Z</time>
</trkpt>
<trkpt lat="31.2247900" lon="35.2099300">
<ele>609.679993</ele>
<time>2024-01-10T16:32:44.701Z</time>
</trkpt>
<trkpt lat="31.2247600" lon="35.2101000">
<ele>611.260010</ele>
<time>2024-01-10T16:32:44.701Z</time>
</trkpt>
<trkpt lat="31.2247600" lon="35.2114300">
<ele>625.770020</ele>
<time>2024-01-10T16:32:44.701Z</time>
</trkpt>
<trkpt lat="31.2248200" lon="35.2118000">
<ele>630.369995</ele>
<time>2024-01-10T16:32:44.701Z</time>
</trkpt>
<trkpt lat="31.2249400" lon="35.2119600">
<ele>631.369995</ele>
<time>2024-01-10T16:32:44.701Z</time>
</trkpt>
<trkpt lat="31.2251800" lon="35.2120900">
<ele>629.939941</ele>
<time>2024-01-10T16:32:44.701Z</time>
</trkpt>
<trkpt lat="31.2254400" lon="35.2122900">
<ele>629.140015</ele>
<time>2024-01-10T16:32:44.701Z</time>
</trkpt>
<trkpt lat="31.2257300" lon="35.2129700">
<ele>630.919983</ele>
<time>2024-01-10T16:32:44.702Z</time>
</trkpt>
<trkpt lat="31.2259600" lon="35.2132400">
<ele>629.299988</ele>
<time>2024-01-10T16:32:44.702Z</time>
</trkpt>
<trkpt lat="31.2267700" lon="35.2143700">
<ele>631.940002</ele>
<time>2024-01-10T16:32:44.702Z</time>
</trkpt>
<trkpt lat="31.2268900" lon="35.2147200">
<ele>628.009949</ele>
<time>2024-01-10T16:32:44.702Z</time>
</trkpt>
<trkpt lat="31.2269300" lon="35.2147400">
<ele>627.690002</ele>
<time>2024-01-10T16:32:44.702Z</time>
</trkpt>
<trkpt lat="31.2269900" lon="35.2151900">
<ele>620.440002</ele>
<time>2024-01-10T16:32:44.702Z</time>
</trkpt>
<trkpt lat="31.2271200" lon="35.2156900">
<ele>618.529968</ele>
<time>2024-01-10T16:32:44.702Z</time>
</trkpt>
<trkpt lat="31.2275900" lon="35.2167800">
<ele>612.910034</ele>
<time>2024-01-10T16:32:44.702Z</time>
</trkpt>
<trkpt lat="31.2277800" lon="35.2174800">
<ele>610.049988</ele>
<time>2024-01-10T16:32:44.702Z</time>
</trkpt>
<trkpt lat="31.2282300" lon="35.2184200">
<ele>605.850037</ele>
<time>2024-01-10T16:32:44.702Z</time>
</trkpt>
<trkpt lat="31.2283600" lon="35.2188800">
<ele>603.090027</ele>
<time>2024-01-10T16:32:44.702Z</time>
</trkpt>
<trkpt lat="31.2283800" lon="35.2194600">
<ele>597.380005</ele>
<time>2024-01-10T16:32:44.702Z</time>
</trkpt>
<trkpt lat="31.2283500" lon="35.2197700">
<ele>598.369995</ele>
<time>2024-01-10T16:32:44.702Z</time>
</trkpt>
<trkpt lat="31.2279800" lon="35.2207100">
<ele>600.789978</ele>
<time>2024-01-10T16:32:44.702Z</time>
</trkpt>
<trkpt lat="31.2269300" lon="35.2214500">
<ele>608.960022</ele>
<time>2024-01-10T16:32:44.702Z</time>
</trkpt>
<trkpt lat="31.2268200" lon="35.2216300">
<ele>608.940002</ele>
<time>2024-01-10T16:32:44.702Z</time>
</trkpt>
<trkpt lat="31.2264900" lon="35.2230900">
<ele>605.909973</ele>
<time>2024-01-10T16:32:44.702Z</time>
</trkpt>
<trkpt lat="31.2265000" lon="35.2235800">
<ele>605.799988</ele>
<time>2024-01-10T16:32:44.702Z</time>
</trkpt>
<trkpt lat="31.2265900" lon="35.2237400">
<ele>605.599976</ele>
<time>2024-01-10T16:32:44.703Z</time>
</trkpt>
<trkpt lat="31.2267900" lon="35.2239200">
<ele>608.599976</ele>
<time>2024-01-10T16:32:44.703Z</time>
</trkpt>
<trkpt lat="31.2268700" lon="35.2240400">
<ele>610.250000</ele>
<time>2024-01-10T16:32:44.703Z</time>
</trkpt>
<trkpt lat="31.2269400" lon="35.2243300">
<ele>613.040039</ele>
<time>2024-01-10T16:32:44.703Z</time>
</trkpt>
<trkpt lat="31.2271000" lon="35.2247200">
<ele>614.799988</ele>
<time>2024-01-10T16:32:44.703Z</time>
</trkpt>
<trkpt lat="31.2271500" lon="35.2250300">
<ele>615.950012</ele>
<time>2024-01-10T16:32:44.703Z</time>
</trkpt>
<trkpt lat="31.2274600" lon="35.2257500">
<ele>615.739990</ele>
<time>2024-01-10T16:32:44.703Z</time>
</trkpt>
<trkpt lat="31.2276300" lon="35.2273200">
<ele>608.899963</ele>
<time>2024-01-10T16:32:44.703Z</time>
</trkpt>
<trkpt lat="31.2278200" lon="35.2277200">
<ele>613.030029</ele>
<time>2024-01-10T16:32:44.703Z</time>
</trkpt>
<trkpt lat="31.2278000" lon="35.2283000">
<ele>610.119995</ele>
<time>2024-01-10T16:32:44.703Z</time>
</trkpt>
<trkpt lat="31.2276600" lon="35.2287700">
<ele>608.669983</ele>
<time>2024-01-10T16:32:44.703Z</time>
</trkpt>
<trkpt lat="31.2255900" lon="35.2298300">
<ele>601.190002</ele>
<time>2024-01-10T16:32:44.703Z</time>
</trkpt>
<trkpt lat="31.2250100" lon="35.2302000">
<ele>611.540039</ele>
<time>2024-01-10T16:32:44.703Z</time>
</trkpt>
<trkpt lat="31.2245600" lon="35.2301500">
<ele>610.959961</ele>
<time>2024-01-10T16:32:44.703Z</time>
</trkpt>
<trkpt lat="31.2241900" lon="35.2301700">
<ele>607.269958</ele>
<time>2024-01-10T16:32:44.703Z</time>
</trkpt>
<trkpt lat="31.2238000" lon="35.2300900">
<ele>603.179993</ele>
<time>2024-01-10T16:32:44.703Z</time>
</trkpt>
<trkpt lat="31.2242100" lon="35.2302100">
<ele>606.260010</ele>
<time>2024-01-10T16:32:44.703Z</time>
</trkpt>
<trkpt lat="31.2246200" lon="35.2301900">
<ele>610.659973</ele>
<time>2024-01-10T16:32:44.703Z</time>
</trkpt>
<trkpt lat="31.2250100" lon="35.2302500">
<ele>610.959961</ele>
<time>2024-01-10T16:32:44.703Z</time>
</trkpt>
<trkpt lat="31.2251700" lon="35.2310400">
<ele>597.039978</ele>
<time>2024-01-10T16:32:44.704Z</time>
</trkpt>
<trkpt lat="31.2252300" lon="35.2315900">
<ele>599.960022</ele>
<time>2024-01-10T16:32:44.704Z</time>
</trkpt>
<trkpt lat="31.2252300" lon="35.2312600">
<ele>597.280029</ele>
<time>2024-01-10T16:32:44.704Z</time>
</trkpt>
<trkpt lat="31.2250400" lon="35.2305200">
<ele>604.700012</ele>
<time>2024-01-10T16:32:44.704Z</time>
</trkpt>
<trkpt lat="31.2250400" lon="35.2302800">
<ele>609.520020</ele>
<time>2024-01-10T16:32:44.704Z</time>
</trkpt>
<trkpt lat="31.2248000" lon="35.2302300">
<ele>611.169983</ele>
<time>2024-01-10T16:32:44.704Z</time>
</trkpt>
<trkpt lat="31.2250300" lon="35.2302500">
<ele>610.279968</ele>
<time>2024-01-10T16:32:44.704Z</time>
</trkpt>
<trkpt lat="31.2251600" lon="35.2301000">
<ele>609.369995</ele>
<time>2024-01-10T16:32:44.704Z</time>
</trkpt>
<trkpt lat="31.2263000" lon="35.2294400">
<ele>591.980042</ele>
<time>2024-01-10T16:32:44.704Z</time>
</trkpt>
<trkpt lat="31.2277000" lon="35.2287800">
<ele>608.669983</ele>
<time>2024-01-10T16:32:44.704Z</time>
</trkpt>
<trkpt lat="31.2278500" lon="35.2282300">
<ele>610.369995</ele>
<time>2024-01-10T16:32:44.704Z</time>
</trkpt>
<trkpt lat="31.2278900" lon="35.2278300">
<ele>612.950012</ele>
<time>2024-01-10T16:32:44.704Z</time>
</trkpt>
<trkpt lat="31.2284500" lon="35.2281000">
<ele>601.510010</ele>
<time>2024-01-10T16:32:44.704Z</time>
</trkpt>
<trkpt lat="31.2286300" lon="35.2282700">
<ele>594.510010</ele>
<time>2024-01-10T16:32:44.704Z</time>
</trkpt>
<trkpt lat="31.2294200" lon="35.2283300">
<ele>580.109985</ele>
<time>2024-01-10T16:32:44.704Z</time>
</trkpt>
<trkpt lat="31.2297200" lon="35.2284000">
<ele>582.539978</ele>
<time>2024-01-10T16:32:44.704Z</time>
</trkpt>
<trkpt lat="31.2298700" lon="35.2284700">
<ele>581.299988</ele>
<time>2024-01-10T16:32:44.704Z</time>
</trkpt>
<trkpt lat="31.2304600" lon="35.2290400">
<ele>568.600037</ele>
<time>2024-01-10T16:32:44.704Z</time>
</trkpt>
<trkpt lat="31.2307900" lon="35.2296500">
<ele>562.059998</ele>
<time>2024-01-10T16:32:44.704Z</time>
</trkpt>
<trkpt lat="31.2309000" lon="35.2297600">
<ele>561.630005</ele>
<time>2024-01-10T16:32:44.704Z</time>
</trkpt>
<trkpt lat="31.2312000" lon="35.2299300">
<ele>561.549988</ele>
<time>2024-01-10T16:32:44.704Z</time>
</trkpt>
<trkpt lat="31.2313500" lon="35.2301500">
<ele>561.349976</ele>
<time>2024-01-10T16:32:44.704Z</time>
</trkpt>
<trkpt lat="31.2316700" lon="35.2310600">
<ele>557.669983</ele>
<time>2024-01-10T16:32:44.705Z</time>
</trkpt>
<trkpt lat="31.2317700" lon="35.2318500">
<ele>556.260010</ele>
<time>2024-01-10T16:32:44.705Z</time>
</trkpt>
<trkpt lat="31.2320700" lon="35.2329700">
<ele>541.649963</ele>
<time>2024-01-10T16:32:44.705Z</time>
</trkpt>
<trkpt lat="31.2320600" lon="35.2336600">
<ele>545.910034</ele>
<time>2024-01-10T16:32:44.705Z</time>
</trkpt>
<trkpt lat="31.2318000" lon="35.2345900">
<ele>542.920044</ele>
<time>2024-01-10T16:32:44.705Z</time>
</trkpt>
<trkpt lat="31.2317600" lon="35.2353000">
<ele>540.409973</ele>
<time>2024-01-10T16:32:44.705Z</time>
</trkpt>
<trkpt lat="31.2318100" lon="35.2358100">
<ele>536.309998</ele>
<time>2024-01-10T16:32:44.705Z</time>
</trkpt>
<trkpt lat="31.2318600" lon="35.2359700">
<ele>536.530029</ele>
<time>2024-01-10T16:32:44.705Z</time>
</trkpt>
<trkpt lat="31.2319700" lon="35.2360600">
<ele>537.650024</ele>
<time>2024-01-10T16:32:44.705Z</time>
</trkpt>
<trkpt lat="31.2320800" lon="35.2362600">
<ele>533.739990</ele>
<time>2024-01-10T16:32:44.705Z</time>
</trkpt>
<trkpt lat="31.2322200" lon="35.2367200">
<ele>527.210022</ele>
<time>2024-01-10T16:32:44.705Z</time>
</trkpt>
<trkpt lat="31.2322200" lon="35.2372800">
<ele>535.010010</ele>
<time>2024-01-10T16:32:44.705Z</time>
</trkpt>
<trkpt lat="31.2321400" lon="35.2373500">
<ele>535.519958</ele>
<time>2024-01-10T16:32:44.705Z</time>
</trkpt>
<trkpt lat="31.2321200" lon="35.2374200">
<ele>536.869995</ele>
<time>2024-01-10T16:32:44.705Z</time>
</trkpt>
<trkpt lat="31.2321800" lon="35.2377300">
<ele>540.760010</ele>
<time>2024-01-10T16:32:44.705Z</time>
</trkpt>
<trkpt lat="31.2321300" lon="35.2375500">
<ele>539.150024</ele>
<time>2024-01-10T16:32:44.705Z</time>
</trkpt>
<trkpt lat="31.2322000" lon="35.2372500">
<ele>534.200012</ele>
<time>2024-01-10T16:32:44.705Z</time>
</trkpt>
<trkpt lat="31.2322100" lon="35.2367900">
<ele>527.500000</ele>
<time>2024-01-10T16:32:44.705Z</time>
</trkpt>
<trkpt lat="31.2321800" lon="35.2367300">
<ele>527.549988</ele>
<time>2024-01-10T16:32:44.705Z</time>
</trkpt>
<trkpt lat="31.2318400" lon="35.2367300">
<ele>527.229980</ele>
<time>2024-01-10T16:32:44.705Z</time>
</trkpt>
<trkpt lat="31.2317800" lon="35.2368400">
<ele>525.309998</ele>
<time>2024-01-10T16:32:44.706Z</time>
</trkpt>
<trkpt lat="31.2313500" lon="35.2372500">
<ele>521.099976</ele>
<time>2024-01-10T16:32:44.706Z</time>
</trkpt>
<trkpt lat="31.2308600" lon="35.2379100">
<ele>513.059998</ele>
<time>2024-01-10T16:32:44.706Z</time>
</trkpt>
<trkpt lat="31.2308000" lon="35.2381000">
<ele>512.859985</ele>
<time>2024-01-10T16:32:44.706Z</time>
</trkpt>
<trkpt lat="31.2307800" lon="35.2385800">
<ele>509.950012</ele>
<time>2024-01-10T16:32:44.706Z</time>
</trkpt>
<trkpt lat="31.2308500" lon="35.2388000">
<ele>507.459991</ele>
<time>2024-01-10T16:32:44.706Z</time>
</trkpt>
<trkpt lat="31.2313700" lon="35.2394700">
<ele>500.719971</ele>
<time>2024-01-10T16:32:44.706Z</time>
</trkpt>
<trkpt lat="31.2314200" lon="35.2395700">
<ele>499.589996</ele>
<time>2024-01-10T16:32:44.706Z</time>
</trkpt>
<trkpt lat="31.2314500" lon="35.2398600">
<ele>495.130005</ele>
<time>2024-01-10T16:32:44.706Z</time>
</trkpt>
<trkpt lat="31.2316100" lon="35.2401700">
<ele>491.989990</ele>
<time>2024-01-10T16:32:44.706Z</time>
</trkpt>
<trkpt lat="31.2319800" lon="35.2407400">
<ele>483.830017</ele>
<time>2024-01-10T16:32:44.706Z</time>
</trkpt>
<trkpt lat="31.2320900" lon="35.2408300">
<ele>479.399994</ele>
<time>2024-01-10T16:32:44.706Z</time>
</trkpt>
<trkpt lat="31.2326500" lon="35.2410700">
<ele>471.929993</ele>
<time>2024-01-10T16:32:44.706Z</time>
</trkpt>
<trkpt lat="31.2326600" lon="35.2412600">
<ele>470.470001</ele>
<time>2024-01-10T16:32:44.706Z</time>
</trkpt>
<trkpt lat="31.2325800" lon="35.2414400">
<ele>469.429993</ele>
<time>2024-01-10T16:32:44.706Z</time>
</trkpt>
<trkpt lat="31.2321300" lon="35.2420600">
<ele>461.670013</ele>
<time>2024-01-10T16:32:44.706Z</time>
</trkpt>
<trkpt lat="31.2318900" lon="35.2422800">
<ele>457.489990</ele>
<time>2024-01-10T16:32:44.706Z</time>
</trkpt>
<trkpt lat="31.2315600" lon="35.2423900">
<ele>448.899994</ele>
<time>2024-01-10T16:32:44.706Z</time>
</trkpt>
<trkpt lat="31.2310200" lon="35.2424400">
<ele>437.860016</ele>
<time>2024-01-10T16:32:44.706Z</time>
</trkpt>
<trkpt lat="31.2309800" lon="35.2427500">
<ele>436.159973</ele>
<time>2024-01-10T16:32:44.706Z</time>
</trkpt>
<trkpt lat="31.2310300" lon="35.2441400">
<ele>421.560028</ele>
<time>2024-01-10T16:32:44.706Z</time>
</trkpt>
<trkpt lat="31.2311500" lon="35.2445200">
<ele>416.590027</ele>
<time>2024-01-10T16:32:44.706Z</time>
</trkpt>
<trkpt lat="31.2312700" lon="35.2447300">
<ele>410.540009</ele>
<time>2024-01-10T16:32:44.706Z</time>
</trkpt>
<trkpt lat="31.2316100" lon="35.2448400">
<ele>399.049988</ele>
<time>2024-01-10T16:32:44.706Z</time>
</trkpt>
<trkpt lat="31.2317800" lon="35.2448500">
<ele>397.299988</ele>
<time>2024-01-10T16:32:44.707Z</time>
</trkpt>
<trkpt lat="31.2321500" lon="35.2447700">
<ele>398.610016</ele>
<time>2024-01-10T16:32:44.707Z</time>
</trkpt>
<trkpt lat="31.2322600" lon="35.2448700">
<ele>397.660004</ele>
<time>2024-01-10T16:32:44.707Z</time>
</trkpt>
<trkpt lat="31.2325500" lon="35.2454300">
<ele>386.710022</ele>
<time>2024-01-10T16:32:44.707Z</time>
</trkpt>
<trkpt lat="31.2327800" lon="35.2455600">
<ele>383.920013</ele>
<time>2024-01-10T16:32:44.707Z</time>
</trkpt>
<trkpt lat="31.2328000" lon="35.2458400">
<ele>379.919983</ele>
<time>2024-01-10T16:32:44.707Z</time>
</trkpt>
<trkpt lat="31.2326700" lon="35.2461600">
<ele>376.180023</ele>
<time>2024-01-10T16:32:44.707Z</time>
</trkpt>
<trkpt lat="31.2325200" lon="35.2462700">
<ele>375.629974</ele>
<time>2024-01-10T16:32:44.707Z</time>
</trkpt>
<trkpt lat="31.2317900" lon="35.2463300">
<ele>352.709991</ele>
<time>2024-01-10T16:32:44.707Z</time>
</trkpt>
<trkpt lat="31.2311000" lon="35.2463300">
<ele>349.070007</ele>
<time>2024-01-10T16:32:44.707Z</time>
</trkpt>
<trkpt lat="31.2305400" lon="35.2464400">
<ele>342.759979</ele>
<time>2024-01-10T16:32:44.707Z</time>
</trkpt>
<trkpt lat="31.2296300" lon="35.2465400">
<ele>352.240021</ele>
<time>2024-01-10T16:32:44.707Z</time>
</trkpt>
<trkpt lat="31.2295300" lon="35.2465800">
<ele>352.320007</ele>
<time>2024-01-10T16:32:44.707Z</time>
</trkpt>
<trkpt lat="31.2293400" lon="35.2466700">
<ele>351.640015</ele>
<time>2024-01-10T16:32:44.707Z</time>
</trkpt>
<trkpt lat="31.2291900" lon="35.2467900">
<ele>352.299988</ele>
<time>2024-01-10T16:32:44.707Z</time>
</trkpt>
<trkpt lat="31.2290800" lon="35.2468900">
<ele>351.910004</ele>
<time>2024-01-10T16:32:44.707Z</time>
</trkpt>
<trkpt lat="31.2289900" lon="35.2470600">
<ele>351.500000</ele>
<time>2024-01-10T16:32:44.707Z</time>
</trkpt>
<trkpt lat="31.2286900" lon="35.2472700">
<ele>344.379974</ele>
<time>2024-01-10T16:32:44.707Z</time>
</trkpt>
<trkpt lat="31.2285200" lon="35.2475700">
<ele>341.489990</ele>
<time>2024-01-10T16:32:44.707Z</time>
</trkpt>
<trkpt lat="31.2285000" lon="35.2476600">
<ele>341.450012</ele>
<time>2024-01-10T16:32:44.707Z</time>
</trkpt>
<trkpt lat="31.2286400" lon="35.2482700">
<ele>344.609985</ele>
<time>2024-01-10T16:32:44.707Z</time>
</trkpt>
<trkpt lat="31.2287900" lon="35.2484700">
<ele>339.499969</ele>
<time>2024-01-10T16:32:44.707Z</time>
</trkpt>
<trkpt lat="31.2289700" lon="35.2486100">
<ele>333.849976</ele>
<time>2024-01-10T16:32:44.708Z</time>
</trkpt>
<trkpt lat="31.2290400" lon="35.2487100">
<ele>331.040009</ele>
<time>2024-01-10T16:32:44.708Z</time>
</trkpt>
<trkpt lat="31.2290800" lon="35.2491900">
<ele>322.399994</ele>
<time>2024-01-10T16:32:44.708Z</time>
</trkpt>
<trkpt lat="31.2290800" lon="35.2493500">
<ele>321.320007</ele>
<time>2024-01-10T16:32:44.708Z</time>
</trkpt>
<trkpt lat="31.2288500" lon="35.2498500">
<ele>318.339996</ele>
<time>2024-01-10T16:32:44.708Z</time>
</trkpt>
<trkpt lat="31.2287300" lon="35.2500000">
<ele>319.719971</ele>
<time>2024-01-10T16:32:44.708Z</time>
</trkpt>
<trkpt lat="31.2287000" lon="35.2506100">
<ele>325.499969</ele>
<time>2024-01-10T16:32:44.708Z</time>
</trkpt>
<trkpt lat="31.2287800" lon="35.2515600">
<ele>321.479980</ele>
<time>2024-01-10T16:32:44.708Z</time>
</trkpt>
<trkpt lat="31.2286700" lon="35.2533200">
<ele>311.089996</ele>
<time>2024-01-10T16:32:44.708Z</time>
</trkpt>
<trkpt lat="31.2287400" lon="35.2534500">
<ele>310.579987</ele>
<time>2024-01-10T16:32:44.708Z</time>
</trkpt>
<trkpt lat="31.2288200" lon="35.2535000">
<ele>310.399994</ele>
<time>2024-01-10T16:32:44.708Z</time>
</trkpt>
<trkpt lat="31.2294400" lon="35.2537200">
<ele>313.369995</ele>
<time>2024-01-10T16:32:44.708Z</time>
</trkpt>
<trkpt lat="31.2303700" lon="35.2549300">
<ele>314.920013</ele>
<time>2024-01-10T16:32:44.708Z</time>
</trkpt>
<trkpt lat="31.2306400" lon="35.2551500">
<ele>313.460022</ele>
<time>2024-01-10T16:32:44.708Z</time>
</trkpt>
<trkpt lat="31.2310800" lon="35.2556300">
<ele>311.519989</ele>
<time>2024-01-10T16:32:44.708Z</time>
</trkpt>
<trkpt lat="31.2315700" lon="35.2560100">
<ele>310.600006</ele>
<time>2024-01-10T16:32:44.708Z</time>
</trkpt>
<trkpt lat="31.2320200" lon="35.2564300">
<ele>308.920013</ele>
<time>2024-01-10T16:32:44.708Z</time>
</trkpt>
<trkpt lat="31.2332000" lon="35.2576000">
<ele>304.320007</ele>
<time>2024-01-10T16:32:44.708Z</time>
</trkpt>
<trkpt lat="31.2333300" lon="35.2576500">
<ele>306.660004</ele>
<time>2024-01-10T16:32:44.708Z</time>
</trkpt>
<trkpt lat="31.2339000" lon="35.2576600">
<ele>296.630005</ele>
<time>2024-01-10T16:32:44.708Z</time>
</trkpt>
<trkpt lat="31.2342700" lon="35.2575000">
<ele>293.859985</ele>
<time>2024-01-10T16:32:44.709Z</time>
</trkpt>
<trkpt lat="31.2343200" lon="35.2576000">
<ele>295.600006</ele>
<time>2024-01-10T16:32:44.709Z</time>
</trkpt>
<trkpt lat="31.2343600" lon="35.2579600">
<ele>297.729980</ele>
<time>2024-01-10T16:32:44.709Z</time>
</trkpt>
<trkpt lat="31.2344700" lon="35.2581100">
<ele>296.880005</ele>
<time>2024-01-10T16:32:44.709Z</time>
</trkpt>
<trkpt lat="31.2346800" lon="35.2582900">
<ele>296.290009</ele>
<time>2024-01-10T16:32:44.709Z</time>
</trkpt>
<trkpt lat="31.2347600" lon="35.2584200">
<ele>295.690002</ele>
<time>2024-01-10T16:32:44.709Z</time>
</trkpt>
<trkpt lat="31.2350500" lon="35.2602400">
<ele>291.679993</ele>
<time>2024-01-10T16:32:44.709Z</time>
</trkpt>
<trkpt lat="31.2351500" lon="35.2604600">
<ele>294.329987</ele>
<time>2024-01-10T16:32:44.709Z</time>
</trkpt>
<trkpt lat="31.2355100" lon="35.2609300">
<ele>296.260010</ele>
<time>2024-01-10T16:32:44.709Z</time>
</trkpt>
<trkpt lat="31.2356300" lon="35.2612200">
<ele>292.670013</ele>
<time>2024-01-10T16:32:44.709Z</time>
</trkpt>
<trkpt lat="31.2360200" lon="35.2625900">
<ele>290.750000</ele>
<time>2024-01-10T16:32:44.709Z</time>
</trkpt>
<trkpt lat="31.2362100" lon="35.2631100">
<ele>290.250000</ele>
<time>2024-01-10T16:32:44.709Z</time>
</trkpt>
<trkpt lat="31.2364600" lon="35.2636900">
<ele>291.380005</ele>
<time>2024-01-10T16:32:44.709Z</time>
</trkpt>
<trkpt lat="31.2366700" lon="35.2640300">
<ele>290.420013</ele>
<time>2024-01-10T16:32:44.709Z</time>
</trkpt>
<trkpt lat="31.2367600" lon="35.2642500">
<ele>287.179993</ele>
<time>2024-01-10T16:32:44.709Z</time>
</trkpt>
<trkpt lat="31.2368500" lon="35.2645500">
<ele>282.169983</ele>
<time>2024-01-10T16:32:44.709Z</time>
</trkpt>
<trkpt lat="31.2369400" lon="35.2652400">
<ele>277.170013</ele>
<time>2024-01-10T16:32:44.709Z</time>
</trkpt>
<trkpt lat="31.2370400" lon="35.2655300">
<ele>274.529999</ele>
<time>2024-01-10T16:32:44.709Z</time>
</trkpt>
<trkpt lat="31.2371200" lon="35.2656800">
<ele>274.920013</ele>
<time>2024-01-10T16:32:44.709Z</time>
</trkpt>
<trkpt lat="31.2373400" lon="35.2659200">
<ele>275.529999</ele>
<time>2024-01-10T16:32:44.710Z</time>
</trkpt>
<trkpt lat="31.2375100" lon="35.2665100">
<ele>275.820007</ele>
<time>2024-01-10T16:32:44.710Z</time>
</trkpt>
<trkpt lat="31.2375300" lon="35.2678400">
<ele>278.800018</ele>
<time>2024-01-10T16:32:44.710Z</time>
</trkpt>
<trkpt lat="31.2371400" lon="35.2684300">
<ele>276.559998</ele>
<time>2024-01-10T16:32:44.710Z</time>
</trkpt>
<trkpt lat="31.2367600" lon="35.2691700">
<ele>266.970001</ele>
<time>2024-01-10T16:32:44.710Z</time>
</trkpt>
<trkpt lat="31.2360500" lon="35.2702300">
<ele>267.540009</ele>
<time>2024-01-10T16:32:44.710Z</time>
</trkpt>
<trkpt lat="31.2358600" lon="35.2703200">
<ele>266.809998</ele>
<time>2024-01-10T16:32:44.710Z</time>
</trkpt>
<trkpt lat="31.2357300" lon="35.2705000">
<ele>267.790009</ele>
<time>2024-01-10T16:32:44.710Z</time>
</trkpt>
<trkpt lat="31.2352900" lon="35.2708300">
<ele>269.989990</ele>
<time>2024-01-10T16:32:44.710Z</time>
</trkpt>
<trkpt lat="31.2349500" lon="35.2714900">
<ele>273.089996</ele>
<time>2024-01-10T16:32:44.710Z</time>
</trkpt>
<trkpt lat="31.2349400" lon="35.2719000">
<ele>274.260010</ele>
<time>2024-01-10T16:32:44.710Z</time>
</trkpt>
<trkpt lat="31.2350000" lon="35.2724600">
<ele>274.289978</ele>
<time>2024-01-10T16:32:44.710Z</time>
</trkpt>
<trkpt lat="31.2351900" lon="35.2732300">
<ele>275.919983</ele>
<time>2024-01-10T16:32:44.710Z</time>
</trkpt>
<trkpt lat="31.2351900" lon="35.2737200">
<ele>278.019989</ele>
<time>2024-01-10T16:32:44.710Z</time>
</trkpt>
<trkpt lat="31.2351400" lon="35.2740600">
<ele>281.359985</ele>
<time>2024-01-10T16:32:44.710Z</time>
</trkpt>
<trkpt lat="31.2350200" lon="35.2744500">
<ele>278.460022</ele>
<time>2024-01-10T16:32:44.710Z</time>
</trkpt>
<trkpt lat="31.2347900" lon="35.2748800">
<ele>271.890015</ele>
<time>2024-01-10T16:32:44.710Z</time>
</trkpt>
<trkpt lat="31.2346200" lon="35.2749900">
<ele>271.619995</ele>
<time>2024-01-10T16:32:44.710Z</time>
</trkpt>
<trkpt lat="31.2344600" lon="35.2752700">
<ele>269.890015</ele>
<time>2024-01-10T16:32:44.710Z</time>
</trkpt>
<trkpt lat="31.2338900" lon="35.2757600">
<ele>263.320007</ele>
<time>2024-01-10T16:32:44.711Z</time>
</trkpt>
<trkpt lat="31.2337100" lon="35.2761000">
<ele>260.750000</ele>
<time>2024-01-10T16:32:44.711Z</time>
</trkpt>
<trkpt lat="31.2330000" lon="35.2767700">
<ele>264.509979</ele>
<time>2024-01-10T16:32:44.711Z</time>
</trkpt>
<trkpt lat="31.2327600" lon="35.2770800">
<ele>261.140015</ele>
<time>2024-01-10T16:32:44.711Z</time>
</trkpt>
<trkpt lat="31.2325600" lon="35.2774200">
<ele>258.429993</ele>
<time>2024-01-10T16:32:44.711Z</time>
</trkpt>
<trkpt lat="31.2322900" lon="35.2782900">
<ele>250.919998</ele>
<time>2024-01-10T16:32:44.711Z</time>
</trkpt>
<trkpt lat="31.2318400" lon="35.2788600">
<ele>251.830002</ele>
<time>2024-01-10T16:32:44.711Z</time>
</trkpt>
<trkpt lat="31.2315400" lon="35.2791700">
<ele>252.979996</ele>
<time>2024-01-10T16:32:44.711Z</time>
</trkpt>
<trkpt lat="31.2312700" lon="35.2793500">
<ele>251.020004</ele>
<time>2024-01-10T16:32:44.711Z</time>
</trkpt>
<trkpt lat="31.2308300" lon="35.2793700">
<ele>250.539993</ele>
<time>2024-01-10T16:32:44.711Z</time>
</trkpt>
<trkpt lat="31.2305700" lon="35.2793400">
<ele>251.110001</ele>
<time>2024-01-10T16:32:44.711Z</time>
</trkpt>
<trkpt lat="31.2304100" lon="35.2793900">
<ele>248.490005</ele>
<time>2024-01-10T16:32:44.711Z</time>
</trkpt>
<trkpt lat="31.2302800" lon="35.2797800">
<ele>243.829987</ele>
<time>2024-01-10T16:32:44.711Z</time>
</trkpt>
<trkpt lat="31.2302700" lon="35.2801600">
<ele>242.279999</ele>
<time>2024-01-10T16:32:44.711Z</time>
</trkpt>
<trkpt lat="31.2302400" lon="35.2802300">
<ele>241.399994</ele>
<time>2024-01-10T16:32:44.711Z</time>
</trkpt>
<trkpt lat="31.2301700" lon="35.2802900">
<ele>239.559998</ele>
<time>2024-01-10T16:32:44.711Z</time>
</trkpt>
<trkpt lat="31.2296600" lon="35.2805100">
<ele>235.099991</ele>
<time>2024-01-10T16:32:44.711Z</time>
</trkpt>
<trkpt lat="31.2293400" lon="35.2805400">
<ele>235.240005</ele>
<time>2024-01-10T16:32:44.711Z</time>
</trkpt>
<trkpt lat="31.2293000" lon="35.2805800">
<ele>235.470001</ele>
<time>2024-01-10T16:32:44.711Z</time>
</trkpt>
<trkpt lat="31.2292800" lon="35.2808500">
<ele>234.519989</ele>
<time>2024-01-10T16:32:44.712Z</time>
</trkpt>
<trkpt lat="31.2292200" lon="35.2810600">
<ele>233.490005</ele>
<time>2024-01-10T16:32:44.712Z</time>
</trkpt>
<trkpt lat="31.2291400" lon="35.2811200">
<ele>233.309998</ele>
<time>2024-01-10T16:32:44.712Z</time>
</trkpt>
<trkpt lat="31.2289100" lon="35.2812000">
<ele>235.500000</ele>
<time>2024-01-10T16:32:44.712Z</time>
</trkpt>
<trkpt lat="31.2288900" lon="35.2814700">
<ele>234.410004</ele>
<time>2024-01-10T16:32:44.712Z</time>
</trkpt>
<trkpt lat="31.2289400" lon="35.2821100">
<ele>230.000000</ele>
<time>2024-01-10T16:32:44.712Z</time>
</trkpt>
<trkpt lat="31.2289900" lon="35.2822100">
<ele>228.979996</ele>
<time>2024-01-10T16:32:44.712Z</time>
</trkpt>
<trkpt lat="31.2292300" lon="35.2823900">
<ele>226.119995</ele>
<time>2024-01-10T16:32:44.712Z</time>
</trkpt>
<trkpt lat="31.2292700" lon="35.2827300">
<ele>225.779999</ele>
<time>2024-01-10T16:32:44.712Z</time>
</trkpt>
<trkpt lat="31.2289600" lon="35.2850400">
<ele>215.619995</ele>
<time>2024-01-10T16:32:44.712Z</time>
</trkpt>
<trkpt lat="31.2288900" lon="35.2853100">
<ele>214.880005</ele>
<time>2024-01-10T16:32:44.712Z</time>
</trkpt>
<trkpt lat="31.2285500" lon="35.2860900">
<ele>214.160004</ele>
<time>2024-01-10T16:32:44.712Z</time>
</trkpt>
<trkpt lat="31.2282400" lon="35.2874400">
<ele>217.990005</ele>
<time>2024-01-10T16:32:44.712Z</time>
</trkpt>
<trkpt lat="31.2279900" lon="35.2877000">
<ele>217.149994</ele>
<time>2024-01-10T16:32:44.712Z</time>
</trkpt>
<trkpt lat="31.2279400" lon="35.2880700">
<ele>217.970001</ele>
<time>2024-01-10T16:32:44.712Z</time>
</trkpt>
<trkpt lat="31.2277400" lon="35.2886400">
<ele>214.079987</ele>
<time>2024-01-10T16:32:44.712Z</time>
</trkpt>
<trkpt lat="31.2273000" lon="35.2896100">
<ele>209.799988</ele>
<time>2024-01-10T16:32:44.712Z</time>
</trkpt>
<trkpt lat="31.2272100" lon="35.2902300">
<ele>204.259995</ele>
<time>2024-01-10T16:32:44.712Z</time>
</trkpt>
<trkpt lat="31.2270400" lon="35.2905600">
<ele>206.009995</ele>
<time>2024-01-10T16:32:44.712Z</time>
</trkpt>
<trkpt lat="31.2266600" lon="35.2909600">
<ele>203.600006</ele>
<time>2024-01-10T16:32:44.713Z</time>
</trkpt>
<trkpt lat="31.2262500" lon="35.2917500">
<ele>197.899994</ele>
<time>2024-01-10T16:32:44.713Z</time>
</trkpt>
<trkpt lat="31.2259700" lon="35.2920800">
<ele>195.240005</ele>
<time>2024-01-10T16:32:44.713Z</time>
</trkpt>
<trkpt lat="31.2258500" lon="35.2923300">
<ele>194.879990</ele>
<time>2024-01-10T16:32:44.713Z</time>
</trkpt>
<trkpt lat="31.2257700" lon="35.2926600">
<ele>192.710007</ele>
<time>2024-01-10T16:32:44.713Z</time>
</trkpt>
<trkpt lat="31.2257500" lon="35.2931700">
<ele>192.690002</ele>
<time>2024-01-10T16:32:44.713Z</time>
</trkpt>
<trkpt lat="31.2255600" lon="35.2934500">
<ele>192.430008</ele>
<time>2024-01-10T16:32:44.713Z</time>
</trkpt>
<trkpt lat="31.2254800" lon="35.2936800">
<ele>193.120010</ele>
<time>2024-01-10T16:32:44.713Z</time>
</trkpt>
<trkpt lat="31.2254200" lon="35.2944800">
<ele>188.629990</ele>
<time>2024-01-10T16:32:44.713Z</time>
</trkpt>
<trkpt lat="31.2250000" lon="35.2948700">
<ele>189.000000</ele>
<time>2024-01-10T16:32:44.713Z</time>
</trkpt>
<trkpt lat="31.2247000" lon="35.2952100">
<ele>188.410004</ele>
<time>2024-01-10T16:32:44.713Z</time>
</trkpt>
<trkpt lat="31.2238900" lon="35.2953700">
<ele>183.669998</ele>
<time>2024-01-10T16:32:44.713Z</time>
</trkpt>
<trkpt lat="31.2237700" lon="35.2953400">
<ele>185.289993</ele>
<time>2024-01-10T16:32:44.713Z</time>
</trkpt>
<trkpt lat="31.2236300" lon="35.2952200">
<ele>188.919998</ele>
<time>2024-01-10T16:32:44.713Z</time>
</trkpt>
<trkpt lat="31.2235800" lon="35.2948800">
<ele>194.940002</ele>
<time>2024-01-10T16:32:44.713Z</time>
</trkpt>
<trkpt lat="31.2232400" lon="35.2948500">
<ele>193.339996</ele>
<time>2024-01-10T16:32:44.713Z</time>
</trkpt>
<trkpt lat="31.2230800" lon="35.2946300">
<ele>194.510010</ele>
<time>2024-01-10T16:32:44.713Z</time>
</trkpt>
<trkpt lat="31.2230000" lon="35.2946000">
<ele>193.949997</ele>
<time>2024-01-10T16:32:44.713Z</time>
</trkpt>
<trkpt lat="31.2227400" lon="35.2946000">
<ele>191.970001</ele>
<time>2024-01-10T16:32:44.713Z</time>
</trkpt>
<trkpt lat="31.2225500" lon="35.2947600">
<ele>189.950012</ele>
<time>2024-01-10T16:32:44.713Z</time>
</trkpt>
<trkpt lat="31.2225000" lon="35.2948800">
<ele>188.300003</ele>
<time>2024-01-10T16:32:44.713Z</time>
</trkpt>
<trkpt lat="31.2224200" lon="35.2955500">
<ele>189.279999</ele>
<time>2024-01-10T16:32:44.713Z</time>
</trkpt>
<trkpt lat="31.2224600" lon="35.2962200">
<ele>191.110016</ele>
<time>2024-01-10T16:32:44.713Z</time>
</trkpt>
<trkpt lat="31.2224400" lon="35.2965200">
<ele>191.100006</ele>
<time>2024-01-10T16:32:44.713Z</time>
</trkpt>
<trkpt lat="31.2223000" lon="35.2971100">
<ele>191.089996</ele>
<time>2024-01-10T16:32:44.713Z</time>
</trkpt>
<trkpt lat="31.2222600" lon="35.2974700">
<ele>186.520004</ele>
<time>2024-01-10T16:32:44.713Z</time>
</trkpt>
<trkpt lat="31.2221400" lon="35.2978300">
<ele>182.659988</ele>
<time>2024-01-10T16:32:44.713Z</time>
</trkpt>
<trkpt lat="31.2221100" lon="35.2982500">
<ele>180.709991</ele>
<time>2024-01-10T16:32:44.713Z</time>
</trkpt>
<trkpt lat="31.2218900" lon="35.2984200">
<ele>178.950012</ele>
<time>2024-01-10T16:32:44.714Z</time>
</trkpt>
<trkpt lat="31.2212400" lon="35.2984800">
<ele>160.929993</ele>
<time>2024-01-10T16:32:44.714Z</time>
</trkpt>
<trkpt lat="31.2212400" lon="35.2985200">
<ele>162.349991</ele>
<time>2024-01-10T16:32:44.714Z</time>
</trkpt>
<trkpt lat="31.2212900" lon="35.2985800">
<ele>166.809998</ele>
<time>2024-01-10T16:32:44.714Z</time>
</trkpt>
<trkpt lat="31.2217800" lon="35.2986200">
<ele>177.639999</ele>
<time>2024-01-10T16:32:44.714Z</time>
</trkpt>
<trkpt lat="31.2220200" lon="35.2987100">
<ele>178.459991</ele>
<time>2024-01-10T16:32:44.714Z</time>
</trkpt>
<trkpt lat="31.2220900" lon="35.2987700">
<ele>177.029999</ele>
<time>2024-01-10T16:32:44.714Z</time>
</trkpt>
<trkpt lat="31.2220800" lon="35.3003700">
<ele>176.819992</ele>
<time>2024-01-10T16:32:44.714Z</time>
</trkpt>
<trkpt lat="31.2222800" lon="35.3009800">
<ele>180.500000</ele>
<time>2024-01-10T16:32:44.714Z</time>
</trkpt>
<trkpt lat="31.2223600" lon="35.3014500">
<ele>182.930008</ele>
<time>2024-01-10T16:32:44.714Z</time>
</trkpt>
<trkpt lat="31.2225500" lon="35.3017800">
<ele>186.690002</ele>
<time>2024-01-10T16:32:44.714Z</time>
</trkpt>
<trkpt lat="31.2229100" lon="35.3020200">
<ele>184.869995</ele>
<time>2024-01-10T16:32:44.714Z</time>
</trkpt>
<trkpt lat="31.2231400" lon="35.3023000">
<ele>181.649994</ele>
<time>2024-01-10T16:32:44.714Z</time>
</trkpt>
<trkpt lat="31.2232300" lon="35.3025100">
<ele>183.589996</ele>
<time>2024-01-10T16:32:44.714Z</time>
</trkpt>
<trkpt lat="31.2235600" lon="35.3029700">
<ele>178.719986</ele>
<time>2024-01-10T16:32:44.714Z</time>
</trkpt>
<trkpt lat="31.2237000" lon="35.3030900">
<ele>175.809998</ele>
<time>2024-01-10T16:32:44.714Z</time>
</trkpt>
<trkpt lat="31.2239100" lon="35.3033700">
<ele>174.150009</ele>
<time>2024-01-10T16:32:44.714Z</time>
</trkpt>
<trkpt lat="31.2239600" lon="35.3034900">
<ele>174.169998</ele>
<time>2024-01-10T16:32:44.714Z</time>
</trkpt>
<trkpt lat="31.2239900" lon="35.3037200">
<ele>172.800003</ele>
<time>2024-01-10T16:32:44.714Z</time>
</trkpt>
<trkpt lat="31.2240000" lon="35.3041900">
<ele>169.980011</ele>
<time>2024-01-10T16:32:44.714Z</time>
</trkpt>
<trkpt lat="31.2238500" lon="35.3046400">
<ele>171.139984</ele>
<time>2024-01-10T16:32:44.714Z</time>
</trkpt>
<trkpt lat="31.2234800" lon="35.3055300">
<ele>170.880005</ele>
<time>2024-01-10T16:32:44.714Z</time>
</trkpt>
<trkpt lat="31.2234000" lon="35.3056300">
<ele>170.560013</ele>
<time>2024-01-10T16:32:44.714Z</time>
</trkpt>
<trkpt lat="31.2232800" lon="35.3056600">
<ele>166.660004</ele>
<time>2024-01-10T16:32:44.714Z</time>
</trkpt>
<trkpt lat="31.2226200" lon="35.3057000">
<ele>157.269989</ele>
<time>2024-01-10T16:32:44.714Z</time>
</trkpt>
<trkpt lat="31.2224000" lon="35.3057500">
<ele>158.299988</ele>
<time>2024-01-10T16:32:44.714Z</time>
</trkpt>
<trkpt lat="31.2222200" lon="35.3058900">
<ele>160.929993</ele>
<time>2024-01-10T16:32:44.714Z</time>
</trkpt>
<trkpt lat="31.2221200" lon="35.3060200">
<ele>157.940002</ele>
<time>2024-01-10T16:32:44.715Z</time>
</trkpt>
<trkpt lat="31.2218600" lon="35.3066800">
<ele>144.479996</ele>
<time>2024-01-10T16:32:44.715Z</time>
</trkpt>
<trkpt lat="31.2216300" lon="35.3069900">
<ele>135.460007</ele>
<time>2024-01-10T16:32:44.715Z</time>
</trkpt>
<trkpt lat="31.2215500" lon="35.3072800">
<ele>129.949997</ele>
<time>2024-01-10T16:32:44.715Z</time>
</trkpt>
<trkpt lat="31.2214800" lon="35.3074100">
<ele>126.709999</ele>
<time>2024-01-10T16:32:44.715Z</time>
</trkpt>
<trkpt lat="31.2212000" lon="35.3077200">
<ele>117.259995</ele>
<time>2024-01-10T16:32:44.715Z</time>
</trkpt>
<trkpt lat="31.2210100" lon="35.3082900">
<ele>107.500000</ele>
<time>2024-01-10T16:32:44.715Z</time>
</trkpt>
<trkpt lat="31.2209300" lon="35.3084000">
<ele>104.520004</ele>
<time>2024-01-10T16:32:44.715Z</time>
</trkpt>
<trkpt lat="31.2206400" lon="35.3085500">
<ele>98.659996</ele>
<time>2024-01-10T16:32:44.715Z</time>
</trkpt>
<trkpt lat="31.2205300" lon="35.3089200">
<ele>95.409996</ele>
<time>2024-01-10T16:32:44.715Z</time>
</trkpt>
<trkpt lat="31.2205100" lon="35.3091000">
<ele>96.849998</ele>
<time>2024-01-10T16:32:44.715Z</time>
</trkpt>
<trkpt lat="31.2205100" lon="35.3095100">
<ele>99.529999</ele>
<time>2024-01-10T16:32:44.715Z</time>
</trkpt>
<trkpt lat="31.2204200" lon="35.3106000">
<ele>96.070000</ele>
<time>2024-01-10T16:32:44.715Z</time>
</trkpt>
<trkpt lat="31.2204200" lon="35.3129700">
<ele>91.639999</ele>
<time>2024-01-10T16:32:44.715Z</time>
</trkpt>
<trkpt lat="31.2204200" lon="35.3129700">
<ele>91.639999</ele>
<time>2024-01-10T16:32:44.715Z</time>
</trkpt>
<trkpt lat="31.2204300" lon="35.3129700">
<ele>91.500000</ele>
<time>2024-01-10T16:32:44.715Z</time>
</trkpt>
<trkpt lat="31.2204700" lon="35.3136600">
<ele>95.299995</ele>
<time>2024-01-10T16:32:44.715Z</time>
</trkpt>
<trkpt lat="31.2203200" lon="35.3140100">
<ele>96.459999</ele>
<time>2024-01-10T16:32:44.715Z</time>
</trkpt>
<trkpt lat="31.2203500" lon="35.3142400">
<ele>96.599998</ele>
<time>2024-01-10T16:32:44.715Z</time>
</trkpt>
<trkpt lat="31.2203200" lon="35.3145700">
<ele>96.229996</ele>
<time>2024-01-10T16:32:44.715Z</time>
</trkpt>
<trkpt lat="31.2202500" lon="35.3147200">
<ele>95.909996</ele>
<time>2024-01-10T16:32:44.715Z</time>
</trkpt>
<trkpt lat="31.2201300" lon="35.3151600">
<ele>95.230003</ele>
<time>2024-01-10T16:32:44.715Z</time>
</trkpt>
<trkpt lat="31.2199200" lon="35.3155600">
<ele>96.260002</ele>
<time>2024-01-10T16:32:44.715Z</time>
</trkpt>
<trkpt lat="31.2197300" lon="35.3158100">
<ele>94.280006</ele>
<time>2024-01-10T16:32:44.715Z</time>
</trkpt>
<trkpt lat="31.2196900" lon="35.3158800">
<ele>93.860001</ele>
<time>2024-01-10T16:32:44.715Z</time>
</trkpt>
<trkpt lat="31.2195600" lon="35.3162700">
<ele>93.169998</ele>
<time>2024-01-10T16:32:44.715Z</time>
</trkpt>
<trkpt lat="31.2194300" lon="35.3164100">
<ele>92.900002</ele>
<time>2024-01-10T16:32:44.715Z</time>
</trkpt>
<trkpt lat="31.2191800" lon="35.3165900">
<ele>91.099998</ele>
<time>2024-01-10T16:32:44.715Z</time>
</trkpt>
<trkpt lat="31.2189700" lon="35.3167400">
<ele>87.280006</ele>
<time>2024-01-10T16:32:44.716Z</time>
</trkpt>
<trkpt lat="31.2188300" lon="35.3168000">
<ele>85.020004</ele>
<time>2024-01-10T16:32:44.716Z</time>
</trkpt>
<trkpt lat="31.2187600" lon="35.3168100">
<ele>83.920006</ele>
<time>2024-01-10T16:32:44.716Z</time>
</trkpt>
<trkpt lat="31.2186600" lon="35.3168500">
<ele>82.220001</ele>
<time>2024-01-10T16:32:44.716Z</time>
</trkpt>
<trkpt lat="31.2185400" lon="35.3169500">
<ele>80.820000</ele>
<time>2024-01-10T16:32:44.716Z</time>
</trkpt>
<trkpt lat="31.2184400" lon="35.3169900">
<ele>80.940002</ele>
<time>2024-01-10T16:32:44.716Z</time>
</trkpt>
<trkpt lat="31.2183900" lon="35.3170400">
<ele>81.310005</ele>
<time>2024-01-10T16:32:44.716Z</time>
</trkpt>
<trkpt lat="31.2182900" lon="35.3170900">
<ele>81.030006</ele>
<time>2024-01-10T16:32:44.716Z</time>
</trkpt>
<trkpt lat="31.2180500" lon="35.3173400">
<ele>81.149994</ele>
<time>2024-01-10T16:32:44.716Z</time>
</trkpt>
<trkpt lat="31.2176100" lon="35.3175400">
<ele>76.099998</ele>
<time>2024-01-10T16:32:44.716Z</time>
</trkpt>
<trkpt lat="31.2171300" lon="35.3179700">
<ele>73.540001</ele>
<time>2024-01-10T16:32:44.716Z</time>
</trkpt>
<trkpt lat="31.2170600" lon="35.3180000">
<ele>74.329994</ele>
<time>2024-01-10T16:32:44.716Z</time>
</trkpt>
<trkpt lat="31.2169900" lon="35.3180000">
<ele>74.739998</ele>
<time>2024-01-10T16:32:44.716Z</time>
</trkpt>
<trkpt lat="31.2167500" lon="35.3180900">
<ele>77.150002</ele>
<time>2024-01-10T16:32:44.716Z</time>
</trkpt>
<trkpt lat="31.2166600" lon="35.3181500">
<ele>78.079994</ele>
<time>2024-01-10T16:32:44.716Z</time>
</trkpt>
<trkpt lat="31.2165500" lon="35.3181600">
<ele>79.119995</ele>
<time>2024-01-10T16:32:44.716Z</time>
</trkpt>
<trkpt lat="31.2164900" lon="35.3181900">
<ele>79.480003</ele>
<time>2024-01-10T16:32:44.716Z</time>
</trkpt>
<trkpt lat="31.2161900" lon="35.3184400">
<ele>79.319992</ele>
<time>2024-01-10T16:32:44.716Z</time>
</trkpt>
<trkpt lat="31.2161000" lon="35.3185600">
<ele>79.750000</ele>
<time>2024-01-10T16:32:44.716Z</time>
</trkpt>
<trkpt lat="31.2158800" lon="35.3187700">
<ele>78.529999</ele>
<time>2024-01-10T16:32:44.716Z</time>
</trkpt>
<trkpt lat="31.2158800" lon="35.3187700">
<ele>78.529999</ele>
<time>2024-01-10T16:32:44.716Z</time>
</trkpt>
<trkpt lat="31.2156200" lon="35.3190100">
<ele>73.489998</ele>
<time>2024-01-10T16:32:44.716Z</time>
</trkpt>
<trkpt lat="31.2155900" lon="35.3190300">
<ele>72.650002</ele>
<time>2024-01-10T16:32:44.716Z</time>
</trkpt>
<trkpt lat="31.2154500" lon="35.3190600">
<ele>71.949997</ele>
<time>2024-01-10T16:32:44.716Z</time>
</trkpt>
<trkpt lat="31.2152800" lon="35.3191300">
<ele>72.849998</ele>
<time>2024-01-10T16:32:44.716Z</time>
</trkpt>
<trkpt lat="31.2151800" lon="35.3192500">
<ele>72.699997</ele>
<time>2024-01-10T16:32:44.716Z</time>
</trkpt>
<trkpt lat="31.2150500" lon="35.3194500">
<ele>73.200005</ele>
<time>2024-01-10T16:32:44.717Z</time>
</trkpt>
<trkpt lat="31.2149500" lon="35.3195700">
<ele>73.010002</ele>
<time>2024-01-10T16:32:44.717Z</time>
</trkpt>
<trkpt lat="31.2146700" lon="35.3199600">
<ele>71.430000</ele>
<time>2024-01-10T16:32:44.717Z</time>
</trkpt>
<trkpt lat="31.2145600" lon="35.3200700">
<ele>71.980003</ele>
<time>2024-01-10T16:32:44.717Z</time>
</trkpt>
<trkpt lat="31.2143200" lon="35.3204800">
<ele>71.620003</ele>
<time>2024-01-10T16:32:44.717Z</time>
</trkpt>
<trkpt lat="31.2142600" lon="35.3205900">
<ele>71.830002</ele>
<time>2024-01-10T16:32:44.717Z</time>
</trkpt>
<trkpt lat="31.2140600" lon="35.3208400">
<ele>71.000000</ele>
<time>2024-01-10T16:32:44.717Z</time>
</trkpt>
<trkpt lat="31.2139200" lon="35.3209700">
<ele>71.000000</ele>
<time>2024-01-10T16:32:44.717Z</time>
</trkpt>
<trkpt lat="31.2138500" lon="35.3210600">
<ele>70.889999</ele>
<time>2024-01-10T16:32:44.717Z</time>
</trkpt>
<trkpt lat="31.2134100" lon="35.3214300">
<ele>69.339996</ele>
<time>2024-01-10T16:32:44.717Z</time>
</trkpt>
<trkpt lat="31.2132800" lon="35.3214900">
<ele>68.599998</ele>
<time>2024-01-10T16:32:44.717Z</time>
</trkpt>
<trkpt lat="31.2132200" lon="35.3215300">
<ele>67.879997</ele>
<time>2024-01-10T16:32:44.717Z</time>
</trkpt>
<trkpt lat="31.2131500" lon="35.3215400">
<ele>66.900002</ele>
<time>2024-01-10T16:32:44.717Z</time>
</trkpt>
<trkpt lat="31.2130900" lon="35.3215800">
<ele>66.180000</ele>
<time>2024-01-10T16:32:44.717Z</time>
</trkpt>
<trkpt lat="31.2130400" lon="35.3216500">
<ele>66.110001</ele>
<time>2024-01-10T16:32:44.717Z</time>
</trkpt>
<trkpt lat="31.2129900" lon="35.3217600">
<ele>66.889999</ele>
<time>2024-01-10T16:32:44.717Z</time>
</trkpt>
<trkpt lat="31.2129500" lon="35.3219200">
<ele>67.360001</ele>
<time>2024-01-10T16:32:44.717Z</time>
</trkpt>
<trkpt lat="31.2129000" lon="35.3220300">
<ele>67.560005</ele>
<time>2024-01-10T16:32:44.717Z</time>
</trkpt>
<trkpt lat="31.2127600" lon="35.3221600">
<ele>68.139999</ele>
<time>2024-01-10T16:32:44.717Z</time>
</trkpt>
<trkpt lat="31.2126500" lon="35.3223200">
<ele>68.570000</ele>
<time>2024-01-10T16:32:44.717Z</time>
</trkpt>
<trkpt lat="31.2126000" lon="35.3224400">
<ele>68.500000</ele>
<time>2024-01-10T16:32:44.717Z</time>
</trkpt>
<trkpt lat="31.2125400" lon="35.3224900">
<ele>68.750000</ele>
<time>2024-01-10T16:32:44.717Z</time>
</trkpt>
<trkpt lat="31.2124800" lon="35.3225200">
<ele>68.680000</ele>
<time>2024-01-10T16:32:44.717Z</time>
</trkpt>
<trkpt lat="31.2123700" lon="35.3225400">
<ele>69.080002</ele>
<time>2024-01-10T16:32:44.717Z</time>
</trkpt>
<trkpt lat="31.2122300" lon="35.3225300">
<ele>70.059998</ele>
<time>2024-01-10T16:32:44.717Z</time>
</trkpt>
<trkpt lat="31.2121300" lon="35.3225600">
<ele>70.330002</ele>
<time>2024-01-10T16:32:44.718Z</time>
</trkpt>
<trkpt lat="31.2121300" lon="35.3225600">
<ele>70.330002</ele>
<time>2024-01-10T16:32:44.718Z</time>
</trkpt>
<trkpt lat="31.2121300" lon="35.3225600">
<ele>70.330002</ele>
<time>2024-01-10T16:32:44.718Z</time>
</trkpt>
<trkpt lat="31.2121300" lon="35.3225600">
<ele>70.330002</ele>
<time>2024-01-10T16:32:44.718Z</time>
</trkpt>
<trkpt lat="31.2120900" lon="35.3225600">
<ele>70.380005</ele>
<time>2024-01-10T16:32:44.718Z</time>
</trkpt>
<trkpt lat="31.2119600" lon="35.3226400">
<ele>70.020004</ele>
<time>2024-01-10T16:32:44.718Z</time>
</trkpt>
<trkpt lat="31.2114100" lon="35.3230300">
<ele>62.270000</ele>
<time>2024-01-10T16:32:44.718Z</time>
</trkpt>
<trkpt lat="31.2109900" lon="35.3232800">
<ele>61.730000</ele>
<time>2024-01-10T16:32:44.718Z</time>
</trkpt>
<trkpt lat="31.2108500" lon="35.3234100">
<ele>63.480000</ele>
<time>2024-01-10T16:32:44.718Z</time>
</trkpt>
<trkpt lat="31.2104800" lon="35.3238400">
<ele>61.759998</ele>
<time>2024-01-10T16:32:44.718Z</time>
</trkpt>
<trkpt lat="31.2103900" lon="35.3239100">
<ele>60.870003</ele>
<time>2024-01-10T16:32:44.718Z</time>
</trkpt>
<trkpt lat="31.2099200" lon="35.3241800">
<ele>60.550003</ele>
<time>2024-01-10T16:32:44.718Z</time>
</trkpt>
<trkpt lat="31.2093200" lon="35.3244000">
<ele>61.519997</ele>
<time>2024-01-10T16:32:44.718Z</time>
</trkpt>
<trkpt lat="31.2089000" lon="35.3246500">
<ele>62.279999</ele>
<time>2024-01-10T16:32:44.718Z</time>
</trkpt>
<trkpt lat="31.2087800" lon="35.3246900">
<ele>62.330002</ele>
<time>2024-01-10T16:32:44.718Z</time>
</trkpt>
<trkpt lat="31.2081200" lon="35.3248300">
<ele>63.049999</ele>
<time>2024-01-10T16:32:44.718Z</time>
</trkpt>
<trkpt lat="31.2075500" lon="35.3250300">
<ele>63.910000</ele>
<time>2024-01-10T16:32:44.718Z</time>
</trkpt>
<trkpt lat="31.2071700" lon="35.3251700">
<ele>63.790001</ele>
<time>2024-01-10T16:32:44.718Z</time>
</trkpt>
<trkpt lat="31.2068600" lon="35.3252300">
<ele>69.430000</ele>
<time>2024-01-10T16:32:44.718Z</time>
</trkpt>
<trkpt lat="31.2064700" lon="35.3252300">
<ele>74.660004</ele>
<time>2024-01-10T16:32:44.718Z</time>
</trkpt>
<trkpt lat="31.2061900" lon="35.3252700">
<ele>75.040001</ele>
<time>2024-01-10T16:32:44.718Z</time>
</trkpt>
<trkpt lat="31.2060800" lon="35.3253100">
<ele>75.309998</ele>
<time>2024-01-10T16:32:44.718Z</time>
</trkpt>
<trkpt lat="31.2058900" lon="35.3254500">
<ele>75.379997</ele>
<time>2024-01-10T16:32:44.718Z</time>
</trkpt>
<trkpt lat="31.2056800" lon="35.3255500">
<ele>73.370003</ele>
<time>2024-01-10T16:32:44.718Z</time>
</trkpt>
<trkpt lat="31.2050100" lon="35.3256700">
<ele>66.040001</ele>
<time>2024-01-10T16:32:44.718Z</time>
</trkpt>
<trkpt lat="31.2047800" lon="35.3257300">
<ele>68.079994</ele>
<time>2024-01-10T16:32:44.718Z</time>
</trkpt>
<trkpt lat="31.2045400" lon="35.3259200">
<ele>66.650002</ele>
<time>2024-01-10T16:32:44.719Z</time>
</trkpt>
<trkpt lat="31.2044200" lon="35.3259600">
<ele>65.739998</ele>
<time>2024-01-10T16:32:44.719Z</time>
</trkpt>
<trkpt lat="31.2042600" lon="35.3259500">
<ele>65.019997</ele>
<time>2024-01-10T16:32:44.719Z</time>
</trkpt>
<trkpt lat="31.2040300" lon="35.3259000">
<ele>63.470001</ele>
<time>2024-01-10T16:32:44.719Z</time>
</trkpt>
<trkpt lat="31.2040300" lon="35.3259000">
<ele>63.470001</ele>
<time>2024-01-10T16:32:44.719Z</time>
</trkpt>
<trkpt lat="31.2039300" lon="35.3258700">
<ele>62.680000</ele>
<time>2024-01-10T16:32:44.719Z</time>
</trkpt>
<trkpt lat="31.2036900" lon="35.3258600">
<ele>59.790001</ele>
<time>2024-01-10T16:32:44.719Z</time>
</trkpt>
<trkpt lat="31.2035000" lon="35.3258200">
<ele>58.490002</ele>
<time>2024-01-10T16:32:44.719Z</time>
</trkpt>
<trkpt lat="31.2032300" lon="35.3257000">
<ele>58.450001</ele>
<time>2024-01-10T16:32:44.719Z</time>
</trkpt>
<trkpt lat="31.2028000" lon="35.3256200">
<ele>58.149998</ele>
<time>2024-01-10T16:32:44.719Z</time>
</trkpt>
<trkpt lat="31.2026800" lon="35.3255900">
<ele>58.430000</ele>
<time>2024-01-10T16:32:44.719Z</time>
</trkpt>
<trkpt lat="31.2020100" lon="35.3252500">
<ele>60.650002</ele>
<time>2024-01-10T16:32:44.719Z</time>
</trkpt>
<trkpt lat="31.2015400" lon="35.3250600">
<ele>59.590000</ele>
<time>2024-01-10T16:32:44.719Z</time>
</trkpt>
<trkpt lat="31.2014300" lon="35.3250000">
<ele>60.850002</ele>
<time>2024-01-10T16:32:44.719Z</time>
</trkpt>
<trkpt lat="31.2013500" lon="35.3249200">
<ele>63.099998</ele>
<time>2024-01-10T16:32:44.719Z</time>
</trkpt>
<trkpt lat="31.2010600" lon="35.3246000">
<ele>69.820000</ele>
<time>2024-01-10T16:32:44.719Z</time>
</trkpt>
<trkpt lat="31.2009300" lon="35.3243900">
<ele>69.150002</ele>
<time>2024-01-10T16:32:44.719Z</time>
</trkpt>
<trkpt lat="31.2008000" lon="35.3240900">
<ele>67.940002</ele>
<time>2024-01-10T16:32:44.719Z</time>
</trkpt>
<trkpt lat="31.2006700" lon="35.3239500">
<ele>69.180000</ele>
<time>2024-01-10T16:32:44.719Z</time>
</trkpt>
<trkpt lat="31.2005500" lon="35.3238500">
<ele>71.380005</ele>
<time>2024-01-10T16:32:44.719Z</time>
</trkpt>
<trkpt lat="31.2003100" lon="35.3237500">
<ele>76.419998</ele>
<time>2024-01-10T16:32:44.719Z</time>
</trkpt>
<trkpt lat="31.2001200" lon="35.3237100">
<ele>78.059998</ele>
<time>2024-01-10T16:32:44.719Z</time>
</trkpt>
<trkpt lat="31.2000200" lon="35.3237200">
<ele>78.510002</ele>
<time>2024-01-10T16:32:44.720Z</time>
</trkpt>
<trkpt lat="31.1999000" lon="35.3237700">
<ele>77.349998</ele>
<time>2024-01-10T16:32:44.720Z</time>
</trkpt>
<trkpt lat="31.1998300" lon="35.3238300">
<ele>76.379997</ele>
<time>2024-01-10T16:32:44.720Z</time>
</trkpt>
<trkpt lat="31.1994600" lon="35.3241500">
<ele>74.209999</ele>
<time>2024-01-10T16:32:44.720Z</time>
</trkpt>
<trkpt lat="31.1991600" lon="35.3244400">
<ele>74.019997</ele>
<time>2024-01-10T16:32:44.720Z</time>
</trkpt>
<trkpt lat="31.1990600" lon="35.3245300">
<ele>74.309998</ele>
<time>2024-01-10T16:32:44.720Z</time>
</trkpt>
<trkpt lat="31.1990800" lon="35.3245800">
<ele>74.490005</ele>
<time>2024-01-10T16:32:44.720Z</time>
</trkpt>
<trkpt lat="31.1990800" lon="35.3245800">
<ele>74.490005</ele>
<time>2024-01-10T16:32:44.720Z</time>
</trkpt>
<trkpt lat="31.1990600" lon="35.3245300">
<ele>74.309998</ele>
<time>2024-01-10T16:32:44.720Z</time>
</trkpt>
<trkpt lat="31.1988300" lon="35.3247300">
<ele>74.830002</ele>
<time>2024-01-10T16:32:44.720Z</time>
</trkpt>
<trkpt lat="31.1986800" lon="35.3248400">
<ele>75.309998</ele>
<time>2024-01-10T16:32:44.720Z</time>
</trkpt>
<trkpt lat="31.1984300" lon="35.3249600">
<ele>74.150002</ele>
<time>2024-01-10T16:32:44.720Z</time>
</trkpt>
<trkpt lat="31.1980100" lon="35.3250500">
<ele>71.629997</ele>
<time>2024-01-10T16:32:44.720Z</time>
</trkpt>
<trkpt lat="31.1978700" lon="35.3251300">
<ele>72.650002</ele>
<time>2024-01-10T16:32:44.720Z</time>
</trkpt>
<trkpt lat="31.1976800" lon="35.3252900">
<ele>75.209999</ele>
<time>2024-01-10T16:32:44.720Z</time>
</trkpt>
<trkpt lat="31.1976200" lon="35.3253300">
<ele>76.760002</ele>
<time>2024-01-10T16:32:44.720Z</time>
</trkpt>
<trkpt lat="31.1971200" lon="35.3255500">
<ele>79.419998</ele>
<time>2024-01-10T16:32:44.720Z</time>
</trkpt>
<trkpt lat="31.1969800" lon="35.3255700">
<ele>79.709999</ele>
<time>2024-01-10T16:32:44.720Z</time>
</trkpt>
<trkpt lat="31.1967600" lon="35.3255200">
<ele>79.759995</ele>
<time>2024-01-10T16:32:44.720Z</time>
</trkpt>
<trkpt lat="31.1964900" lon="35.3255300">
<ele>80.410004</ele>
<time>2024-01-10T16:32:44.720Z</time>
</trkpt>
<trkpt lat="31.1963500" lon="35.3255600">
<ele>81.690002</ele>
<time>2024-01-10T16:32:44.720Z</time>
</trkpt>
<trkpt lat="31.1961700" lon="35.3256300">
<ele>84.099998</ele>
<time>2024-01-10T16:32:44.721Z</time>
</trkpt>
<trkpt lat="31.1952600" lon="35.3258600">
<ele>88.400002</ele>
<time>2024-01-10T16:32:44.721Z</time>
</trkpt>
<trkpt lat="31.1950400" lon="35.3259700">
<ele>89.919998</ele>
<time>2024-01-10T16:32:44.721Z</time>
</trkpt>
<trkpt lat="31.1944400" lon="35.3264700">
<ele>86.269997</ele>
<time>2024-01-10T16:32:44.721Z</time>
</trkpt>
<trkpt lat="31.1938400" lon="35.3267800">
<ele>84.269997</ele>
<time>2024-01-10T16:32:44.721Z</time>
</trkpt>
<trkpt lat="31.1937500" lon="35.3268700">
<ele>84.540001</ele>
<time>2024-01-10T16:32:44.721Z</time>
</trkpt>
<trkpt lat="31.1936800" lon="35.3270200">
<ele>84.530006</ele>
<time>2024-01-10T16:32:44.721Z</time>
</trkpt>
<trkpt lat="31.1935300" lon="35.3275400">
<ele>82.690002</ele>
<time>2024-01-10T16:32:44.721Z</time>
</trkpt>
<trkpt lat="31.1934700" lon="35.3276700">
<ele>82.599998</ele>
<time>2024-01-10T16:32:44.721Z</time>
</trkpt>
<trkpt lat="31.1934200" lon="35.3277500">
<ele>82.540001</ele>
<time>2024-01-10T16:32:44.721Z</time>
</trkpt>
<trkpt lat="31.1933100" lon="35.3278400">
<ele>82.720001</ele>
<time>2024-01-10T16:32:44.721Z</time>
</trkpt>
<trkpt lat="31.1928400" lon="35.3280700">
<ele>84.440002</ele>
<time>2024-01-10T16:32:44.721Z</time>
</trkpt>
<trkpt lat="31.1926900" lon="35.3281900">
<ele>84.169998</ele>
<time>2024-01-10T16:32:44.721Z</time>
</trkpt>
<trkpt lat="31.1921600" lon="35.3286500">
<ele>78.740005</ele>
<time>2024-01-10T16:32:44.721Z</time>
</trkpt>
<trkpt lat="31.1918200" lon="35.3290200">
<ele>75.209999</ele>
<time>2024-01-10T16:32:44.721Z</time>
</trkpt>
<trkpt lat="31.1916600" lon="35.3291200">
<ele>71.620003</ele>
<time>2024-01-10T16:32:44.721Z</time>
</trkpt>
<trkpt lat="31.1915500" lon="35.3291400">
<ele>72.799995</ele>
<time>2024-01-10T16:32:44.721Z</time>
</trkpt>
<trkpt lat="31.1913700" lon="35.3291400">
<ele>75.610001</ele>
<time>2024-01-10T16:32:44.721Z</time>
</trkpt>
<trkpt lat="31.1910800" lon="35.3290700">
<ele>78.209999</ele>
<time>2024-01-10T16:32:44.721Z</time>
</trkpt>
<trkpt lat="31.1910000" lon="35.3290300">
<ele>78.360001</ele>
<time>2024-01-10T16:32:44.721Z</time>
</trkpt>
<trkpt lat="31.1907900" lon="35.3289000">
<ele>79.180008</ele>
<time>2024-01-10T16:32:44.721Z</time>
</trkpt>
<trkpt lat="31.1905000" lon="35.3286300">
<ele>79.309998</ele>
<time>2024-01-10T16:32:44.721Z</time>
</trkpt>
<trkpt lat="31.1904400" lon="35.3285900">
<ele>79.580002</ele>
<time>2024-01-10T16:32:44.721Z</time>
</trkpt>
<trkpt lat="31.1903700" lon="35.3285700">
<ele>79.500000</ele>
<time>2024-01-10T16:32:44.722Z</time>
</trkpt>
<trkpt lat="31.1903000" lon="35.3285800">
<ele>78.820000</ele>
<time>2024-01-10T16:32:44.722Z</time>
</trkpt>
<trkpt lat="31.1901100" lon="35.3287100">
<ele>75.229996</ele>
<time>2024-01-10T16:32:44.722Z</time>
</trkpt>
<trkpt lat="31.1899900" lon="35.3287500">
<ele>74.050003</ele>
<time>2024-01-10T16:32:44.722Z</time>
</trkpt>
<trkpt lat="31.1895100" lon="35.3287500">
<ele>77.410004</ele>
<time>2024-01-10T16:32:44.722Z</time>
</trkpt>
<trkpt lat="31.1892000" lon="35.3287000">
<ele>78.000000</ele>
<time>2024-01-10T16:32:44.722Z</time>
</trkpt>
<trkpt lat="31.1889200" lon="35.3286100">
<ele>78.900002</ele>
<time>2024-01-10T16:32:44.722Z</time>
</trkpt>
<trkpt lat="31.1886700" lon="35.3284200">
<ele>77.909996</ele>
<time>2024-01-10T16:32:44.722Z</time>
</trkpt>
<trkpt lat="31.1885300" lon="35.3283500">
<ele>77.529999</ele>
<time>2024-01-10T16:32:44.722Z</time>
</trkpt>
<trkpt lat="31.1884600" lon="35.3283500">
<ele>77.279999</ele>
<time>2024-01-10T16:32:44.722Z</time>
</trkpt>
<trkpt lat="31.1883900" lon="35.3283800">
<ele>76.700005</ele>
<time>2024-01-10T16:32:44.722Z</time>
</trkpt>
<trkpt lat="31.1883100" lon="35.3284800">
<ele>75.709999</ele>
<time>2024-01-10T16:32:44.722Z</time>
</trkpt>
<trkpt lat="31.1882400" lon="35.3285600">
<ele>75.619995</ele>
<time>2024-01-10T16:32:44.722Z</time>
</trkpt>
<trkpt lat="31.1881000" lon="35.3285700">
<ele>77.090004</ele>
<time>2024-01-10T16:32:44.722Z</time>
</trkpt>
<trkpt lat="31.1877500" lon="35.3284600">
<ele>81.920006</ele>
<time>2024-01-10T16:32:44.722Z</time>
</trkpt>
<trkpt lat="31.1874600" lon="35.3283200">
<ele>86.139999</ele>
<time>2024-01-10T16:32:44.722Z</time>
</trkpt>
<trkpt lat="31.1873400" lon="35.3282200">
<ele>87.219994</ele>
<time>2024-01-10T16:32:44.722Z</time>
</trkpt>
<trkpt lat="31.1871700" lon="35.3280200">
<ele>89.400002</ele>
<time>2024-01-10T16:32:44.722Z</time>
</trkpt>
<trkpt lat="31.1869400" lon="35.3276300">
<ele>89.479996</ele>
<time>2024-01-10T16:32:44.722Z</time>
</trkpt>
<trkpt lat="31.1867900" lon="35.3274300">
<ele>89.440002</ele>
<time>2024-01-10T16:32:44.722Z</time>
</trkpt>
<trkpt lat="31.1867900" lon="35.3274300">
<ele>89.440002</ele>
<time>2024-01-10T16:32:44.722Z</time>
</trkpt>
<trkpt lat="31.1866000" lon="35.3271600">
<ele>90.020004</ele>
<time>2024-01-10T16:32:44.722Z</time>
</trkpt>
<trkpt lat="31.1865600" lon="35.3270800">
<ele>89.870003</ele>
<time>2024-01-10T16:32:44.722Z</time>
</trkpt>
<trkpt lat="31.1865300" lon="35.3269000">
<ele>89.410004</ele>
<time>2024-01-10T16:32:44.722Z</time>
</trkpt>
<trkpt lat="31.1865300" lon="35.3266600">
<ele>88.989998</ele>
<time>2024-01-10T16:32:44.722Z</time>
</trkpt>
<trkpt lat="31.1864900" lon="35.3262900">
<ele>88.269997</ele>
<time>2024-01-10T16:32:44.722Z</time>
</trkpt>
<trkpt lat="31.1864600" lon="35.3261400">
<ele>87.820000</ele>
<time>2024-01-10T16:32:44.722Z</time>
</trkpt>
<trkpt lat="31.1864000" lon="35.3259600">
<ele>87.100006</ele>
<time>2024-01-10T16:32:44.723Z</time>
</trkpt>
<trkpt lat="31.1862900" lon="35.3256500">
<ele>87.300003</ele>
<time>2024-01-10T16:32:44.723Z</time>
</trkpt>
<trkpt lat="31.1862400" lon="35.3253000">
<ele>87.529999</ele>
<time>2024-01-10T16:32:44.723Z</time>
</trkpt>
<trkpt lat="31.1861900" lon="35.3248000">
<ele>90.869995</ele>
<time>2024-01-10T16:32:44.723Z</time>
</trkpt>
<trkpt lat="31.1860900" lon="35.3243700">
<ele>91.309998</ele>
<time>2024-01-10T16:32:44.723Z</time>
</trkpt>
<trkpt lat="31.1860900" lon="35.3240500">
<ele>89.459999</ele>
<time>2024-01-10T16:32:44.723Z</time>
</trkpt>
<trkpt lat="31.1861500" lon="35.3237200">
<ele>89.420006</ele>
<time>2024-01-10T16:32:44.723Z</time>
</trkpt>
<trkpt lat="31.1862000" lon="35.3236100">
<ele>89.949997</ele>
<time>2024-01-10T16:32:44.723Z</time>
</trkpt>
<trkpt lat="31.1864800" lon="35.3232700">
<ele>89.440002</ele>
<time>2024-01-10T16:32:44.723Z</time>
</trkpt>
<trkpt lat="31.1865400" lon="35.3231700">
<ele>89.240005</ele>
<time>2024-01-10T16:32:44.723Z</time>
</trkpt>
<trkpt lat="31.1865800" lon="35.3230100">
<ele>89.659996</ele>
<time>2024-01-10T16:32:44.723Z</time>
</trkpt>
<trkpt lat="31.1866000" lon="35.3228200">
<ele>91.250000</ele>
<time>2024-01-10T16:32:44.723Z</time>
</trkpt>
<trkpt lat="31.1865200" lon="35.3224000">
<ele>89.959999</ele>
<time>2024-01-10T16:32:44.723Z</time>
</trkpt>
<trkpt lat="31.1864500" lon="35.3222400">
<ele>87.770004</ele>
<time>2024-01-10T16:32:44.723Z</time>
</trkpt>
<trkpt lat="31.1862200" lon="35.3220100">
<ele>85.809998</ele>
<time>2024-01-10T16:32:44.723Z</time>
</trkpt>
<trkpt lat="31.1860300" lon="35.3218100">
<ele>86.529999</ele>
<time>2024-01-10T16:32:44.723Z</time>
</trkpt>
<trkpt lat="31.1858400" lon="35.3209300">
<ele>91.659996</ele>
<time>2024-01-10T16:32:44.723Z</time>
</trkpt>
<trkpt lat="31.1858000" lon="35.3208400">
<ele>91.739998</ele>
<time>2024-01-10T16:32:44.723Z</time>
</trkpt>
<trkpt lat="31.1857800" lon="35.3208000">
<ele>91.860001</ele>
<time>2024-01-10T16:32:44.723Z</time>
</trkpt>
<trkpt lat="31.1857100" lon="35.3207000">
<ele>92.070000</ele>
<time>2024-01-10T16:32:44.723Z</time>
</trkpt>
<trkpt lat="31.1856600" lon="35.3206500">
<ele>92.070000</ele>
<time>2024-01-10T16:32:44.723Z</time>
</trkpt>
<trkpt lat="31.1855900" lon="35.3206300">
<ele>91.709999</ele>
<time>2024-01-10T16:32:44.723Z</time>
</trkpt>
<trkpt lat="31.1854700" lon="35.3206400">
<ele>91.580002</ele>
<time>2024-01-10T16:32:44.723Z</time>
</trkpt>
<trkpt lat="31.1853300" lon="35.3207000">
<ele>91.799995</ele>
<time>2024-01-10T16:32:44.723Z</time>
</trkpt>
<trkpt lat="31.1848200" lon="35.3210300">
<ele>93.250000</ele>
<time>2024-01-10T16:32:44.723Z</time>
</trkpt>
<trkpt lat="31.1841100" lon="35.3212700">
<ele>97.909996</ele>
<time>2024-01-10T16:32:44.723Z</time>
</trkpt>
<trkpt lat="31.1839700" lon="35.3213400">
<ele>97.480003</ele>
<time>2024-01-10T16:32:44.724Z</time>
</trkpt>
<trkpt lat="31.1835500" lon="35.3216300">
<ele>94.970001</ele>
<time>2024-01-10T16:32:44.724Z</time>
</trkpt>
<trkpt lat="31.1832800" lon="35.3217800">
<ele>94.650002</ele>
<time>2024-01-10T16:32:44.724Z</time>
</trkpt>
<trkpt lat="31.1831700" lon="35.3218400">
<ele>93.680000</ele>
<time>2024-01-10T16:32:44.724Z</time>
</trkpt>
<trkpt lat="31.1829200" lon="35.3219800">
<ele>89.989998</ele>
<time>2024-01-10T16:32:44.724Z</time>
</trkpt>
<trkpt lat="31.1820000" lon="35.3223200">
<ele>87.440002</ele>
<time>2024-01-10T16:32:44.724Z</time>
</trkpt>
<trkpt lat="31.1819300" lon="35.3223500">
<ele>87.110001</ele>
<time>2024-01-10T16:32:44.724Z</time>
</trkpt>
<trkpt lat="31.1816300" lon="35.3224200">
<ele>86.360001</ele>
<time>2024-01-10T16:32:44.724Z</time>
</trkpt>
<trkpt lat="31.1814000" lon="35.3224500">
<ele>85.549995</ele>
<time>2024-01-10T16:32:44.724Z</time>
</trkpt>
<trkpt lat="31.1810900" lon="35.3224500">
<ele>86.410004</ele>
<time>2024-01-10T16:32:44.724Z</time>
</trkpt>
<trkpt lat="31.1808300" lon="35.3225000">
<ele>86.040001</ele>
<time>2024-01-10T16:32:44.724Z</time>
</trkpt>
<trkpt lat="31.1806200" lon="35.3225000">
<ele>88.299995</ele>
<time>2024-01-10T16:32:44.724Z</time>
</trkpt>
<trkpt lat="31.1803500" lon="35.3224600">
<ele>90.099998</ele>
<time>2024-01-10T16:32:44.724Z</time>
</trkpt>
<trkpt lat="31.1802200" lon="35.3224300">
<ele>90.089996</ele>
<time>2024-01-10T16:32:44.724Z</time>
</trkpt>
<trkpt lat="31.1800900" lon="35.3223500">
<ele>89.730003</ele>
<time>2024-01-10T16:32:44.724Z</time>
</trkpt>
<trkpt lat="31.1799000" lon="35.3221700">
<ele>90.680000</ele>
<time>2024-01-10T16:32:44.724Z</time>
</trkpt>
<trkpt lat="31.1798200" lon="35.3221300">
<ele>91.410004</ele>
<time>2024-01-10T16:32:44.724Z</time>
</trkpt>
<trkpt lat="31.1795200" lon="35.3221000">
<ele>92.639999</ele>
<time>2024-01-10T16:32:44.724Z</time>
</trkpt>
<trkpt lat="31.1792700" lon="35.3220400">
<ele>90.920006</ele>
<time>2024-01-10T16:32:44.724Z</time>
</trkpt>
<trkpt lat="31.1791200" lon="35.3219800">
<ele>89.120003</ele>
<time>2024-01-10T16:32:44.724Z</time>
</trkpt>
<trkpt lat="31.1784300" lon="35.3215400">
<ele>90.269997</ele>
<time>2024-01-10T16:32:44.724Z</time>
</trkpt>
<trkpt lat="31.1782500" lon="35.3213800">
<ele>91.039993</ele>
<time>2024-01-10T16:32:44.724Z</time>
</trkpt>
<trkpt lat="31.1778900" lon="35.3209900">
<ele>93.759995</ele>
<time>2024-01-10T16:32:44.724Z</time>
</trkpt>
<trkpt lat="31.1775200" lon="35.3207500">
<ele>97.409996</ele>
<time>2024-01-10T16:32:44.724Z</time>
</trkpt>
<trkpt lat="31.1774400" lon="35.3206500">
<ele>97.200005</ele>
<time>2024-01-10T16:32:44.724Z</time>
</trkpt>
<trkpt lat="31.1772800" lon="35.3203400">
<ele>95.430000</ele>
<time>2024-01-10T16:32:44.724Z</time>
</trkpt>
<trkpt lat="31.1771700" lon="35.3201900">
<ele>95.500000</ele>
<time>2024-01-10T16:32:44.724Z</time>
</trkpt>
<trkpt lat="31.1771500" lon="35.3202100">
<ele>95.500000</ele>
<time>2024-01-10T16:32:44.724Z</time>
</trkpt>
<trkpt lat="31.1771500" lon="35.3202100">
<ele>95.500000</ele>
<time>2024-01-10T16:32:44.725Z</time>
</trkpt>
<trkpt lat="31.1771700" lon="35.3201900">
<ele>95.500000</ele>
<time>2024-01-10T16:32:44.725Z</time>
</trkpt>
<trkpt lat="31.1771400" lon="35.3201400">
<ele>95.790001</ele>
<time>2024-01-10T16:32:44.725Z</time>
</trkpt>
<trkpt lat="31.1769800" lon="35.3199700">
<ele>96.870003</ele>
<time>2024-01-10T16:32:44.725Z</time>
</trkpt>
<trkpt lat="31.1768200" lon="35.3198600">
<ele>98.120003</ele>
<time>2024-01-10T16:32:44.725Z</time>
</trkpt>
<trkpt lat="31.1763700" lon="35.3196400">
<ele>98.570000</ele>
<time>2024-01-10T16:32:44.725Z</time>
</trkpt>
<trkpt lat="31.1762300" lon="35.3195300">
<ele>98.990005</ele>
<time>2024-01-10T16:32:44.725Z</time>
</trkpt>
<trkpt lat="31.1758800" lon="35.3191900">
<ele>99.170006</ele>
<time>2024-01-10T16:32:44.725Z</time>
</trkpt>
<trkpt lat="31.1755400" lon="35.3189000">
<ele>101.109993</ele>
<time>2024-01-10T16:32:44.725Z</time>
</trkpt>
<trkpt lat="31.1754300" lon="35.3188000">
<ele>101.760002</ele>
<time>2024-01-10T16:32:44.725Z</time>
</trkpt>
<trkpt lat="31.1753100" lon="35.3187400">
<ele>102.290001</ele>
<time>2024-01-10T16:32:44.725Z</time>
</trkpt>
<trkpt lat="31.1752400" lon="35.3187300">
<ele>102.779999</ele>
<time>2024-01-10T16:32:44.725Z</time>
</trkpt>
<trkpt lat="31.1751600" lon="35.3187400">
<ele>103.539993</ele>
<time>2024-01-10T16:32:44.725Z</time>
</trkpt>
<trkpt lat="31.1750900" lon="35.3187700">
<ele>104.209999</ele>
<time>2024-01-10T16:32:44.725Z</time>
</trkpt>
<trkpt lat="31.1747200" lon="35.3189900">
<ele>106.639999</ele>
<time>2024-01-10T16:32:44.725Z</time>
</trkpt>
<trkpt lat="31.1747200" lon="35.3189900">
<ele>106.639999</ele>
<time>2024-01-10T16:32:44.725Z</time>
</trkpt>
<trkpt lat="31.1745100" lon="35.3190600">
<ele>106.849998</ele>
<time>2024-01-10T16:32:44.725Z</time>
</trkpt>
<trkpt lat="31.1744100" lon="35.3190800">
<ele>106.589996</ele>
<time>2024-01-10T16:32:44.725Z</time>
</trkpt>
<trkpt lat="31.1741800" lon="35.3190600">
<ele>103.779999</ele>
<time>2024-01-10T16:32:44.725Z</time>
</trkpt>
<trkpt lat="31.1740600" lon="35.3190300">
<ele>104.080002</ele>
<time>2024-01-10T16:32:44.725Z</time>
</trkpt>
<trkpt lat="31.1738600" lon="35.3189700">
<ele>105.070000</ele>
<time>2024-01-10T16:32:44.725Z</time>
</trkpt>
<trkpt lat="31.1730400" lon="35.3181500">
<ele>104.490005</ele>
<time>2024-01-10T16:32:44.725Z</time>
</trkpt>
<trkpt lat="31.1724000" lon="35.3180200">
<ele>106.360001</ele>
<time>2024-01-10T16:32:44.725Z</time>
</trkpt>
<trkpt lat="31.1715900" lon="35.3176500">
<ele>97.020004</ele>
<time>2024-01-10T16:32:44.725Z</time>
</trkpt>
<trkpt lat="31.1713100" lon="35.3176000">
<ele>94.659996</ele>
<time>2024-01-10T16:32:44.725Z</time>
</trkpt>
<trkpt lat="31.1709500" lon="35.3176300">
<ele>93.779999</ele>
<time>2024-01-10T16:32:44.725Z</time>
</trkpt>
<trkpt lat="31.1706700" lon="35.3173100">
<ele>89.139999</ele>
<time>2024-01-10T16:32:44.726Z</time>
</trkpt>
<trkpt lat="31.1705200" lon="35.3168000">
<ele>80.999992</ele>
<time>2024-01-10T16:32:44.726Z</time>
</trkpt>
<trkpt lat="31.1703300" lon="35.3165600">
<ele>79.769997</ele>
<time>2024-01-10T16:32:44.726Z</time>
</trkpt>
<trkpt lat="31.1702300" lon="35.3164900">
<ele>79.699997</ele>
<time>2024-01-10T16:32:44.726Z</time>
</trkpt>
<trkpt lat="31.1702100" lon="35.3165200">
<ele>78.989998</ele>
<time>2024-01-10T16:32:44.726Z</time>
</trkpt>
<trkpt lat="31.1702100" lon="35.3165200">
<ele>78.989998</ele>
<time>2024-01-10T16:32:44.726Z</time>
</trkpt>
<trkpt lat="31.1702300" lon="35.3164900">
<ele>79.699997</ele>
<time>2024-01-10T16:32:44.726Z</time>
</trkpt>
<trkpt lat="31.1697000" lon="35.3161400">
<ele>75.379997</ele>
<time>2024-01-10T16:32:44.726Z</time>
</trkpt>
<trkpt lat="31.1692000" lon="35.3164700">
<ele>78.330002</ele>
<time>2024-01-10T16:32:44.726Z</time>
</trkpt>
<trkpt lat="31.1686900" lon="35.3168000">
<ele>77.260002</ele>
<time>2024-01-10T16:32:44.726Z</time>
</trkpt>
<trkpt lat="31.1681900" lon="35.3171300">
<ele>79.360001</ele>
<time>2024-01-10T16:32:44.726Z</time>
</trkpt>
<trkpt lat="31.1679600" lon="35.3173200">
<ele>81.119995</ele>
<time>2024-01-10T16:32:44.726Z</time>
</trkpt>
<trkpt lat="31.1678200" lon="35.3175400">
<ele>80.839996</ele>
<time>2024-01-10T16:32:44.726Z</time>
</trkpt>
<trkpt lat="31.1676300" lon="35.3180800">
<ele>82.430000</ele>
<time>2024-01-10T16:32:44.726Z</time>
</trkpt>
<trkpt lat="31.1674700" lon="35.3184200">
<ele>80.710007</ele>
<time>2024-01-10T16:32:44.726Z</time>
</trkpt>
<trkpt lat="31.1672400" lon="35.3187900">
<ele>79.090004</ele>
<time>2024-01-10T16:32:44.726Z</time>
</trkpt>
<trkpt lat="31.1669700" lon="35.3191600">
<ele>77.360001</ele>
<time>2024-01-10T16:32:44.726Z</time>
</trkpt>
<trkpt lat="31.1665600" lon="35.3196600">
<ele>74.570000</ele>
<time>2024-01-10T16:32:44.726Z</time>
</trkpt>
<trkpt lat="31.1661900" lon="35.3200200">
<ele>71.570000</ele>
<time>2024-01-10T16:32:44.726Z</time>
</trkpt>
<trkpt lat="31.1658100" lon="35.3203700">
<ele>68.050003</ele>
<time>2024-01-10T16:32:44.726Z</time>
</trkpt>
<trkpt lat="31.1654400" lon="35.3207300">
<ele>63.600002</ele>
<time>2024-01-10T16:32:44.726Z</time>
</trkpt>
<trkpt lat="31.1654400" lon="35.3207300">
<ele>63.600002</ele>
<time>2024-01-10T16:32:44.726Z</time>
</trkpt>
<trkpt lat="31.1654400" lon="35.3207300">
<ele>63.600002</ele>
<time>2024-01-10T16:32:44.726Z</time>
</trkpt>
<trkpt lat="31.1651800" lon="35.3209700">
<ele>61.610001</ele>
<time>2024-01-10T16:32:44.726Z</time>
</trkpt>
<trkpt lat="31.1646900" lon="35.3215400">
<ele>60.270000</ele>
<time>2024-01-10T16:32:44.726Z</time>
</trkpt>
<trkpt lat="31.1643800" lon="35.3219000">
<ele>57.500000</ele>
<time>2024-01-10T16:32:44.726Z</time>
</trkpt>
<trkpt lat="31.1640300" lon="35.3223300">
<ele>56.200001</ele>
<time>2024-01-10T16:32:44.726Z</time>
</trkpt>
<trkpt lat="31.1636700" lon="35.3227500">
<ele>55.739998</ele>
<time>2024-01-10T16:32:44.726Z</time>
</trkpt>
<trkpt lat="31.1633200" lon="35.3231800">
<ele>56.849998</ele>
<time>2024-01-10T16:32:44.727Z</time>
</trkpt>
<trkpt lat="31.1630900" lon="35.3235200">
<ele>57.209999</ele>
<time>2024-01-10T16:32:44.727Z</time>
</trkpt>
<trkpt lat="31.1628400" lon="35.3240100">
<ele>56.980000</ele>
<time>2024-01-10T16:32:44.727Z</time>
</trkpt>
<trkpt lat="31.1627100" lon="35.3242200">
<ele>56.220001</ele>
<time>2024-01-10T16:32:44.727Z</time>
</trkpt>
<trkpt lat="31.1626000" lon="35.3244700">
<ele>54.439999</ele>
<time>2024-01-10T16:32:44.727Z</time>
</trkpt>
<trkpt lat="31.1623300" lon="35.3250300">
<ele>54.070004</ele>
<time>2024-01-10T16:32:44.727Z</time>
</trkpt>
<trkpt lat="31.1620500" lon="35.3255800">
<ele>53.230003</ele>
<time>2024-01-10T16:32:44.727Z</time>
</trkpt>
<trkpt lat="31.1617800" lon="35.3261400">
<ele>48.180000</ele>
<time>2024-01-10T16:32:44.727Z</time>
</trkpt>
<trkpt lat="31.1613700" lon="35.3270200">
<ele>43.270000</ele>
<time>2024-01-10T16:32:44.727Z</time>
</trkpt>
<trkpt lat="31.1612400" lon="35.3274100">
<ele>39.619999</ele>
<time>2024-01-10T16:32:44.727Z</time>
</trkpt>
<trkpt lat="31.1610600" lon="35.3281500">
<ele>41.110001</ele>
<time>2024-01-10T16:32:44.727Z</time>
</trkpt>
<trkpt lat="31.1609200" lon="35.3284700">
<ele>44.410000</ele>
<time>2024-01-10T16:32:44.727Z</time>
</trkpt>
<trkpt lat="31.1607900" lon="35.3286100">
<ele>44.049999</ele>
<time>2024-01-10T16:32:44.727Z</time>
</trkpt>
<trkpt lat="31.1606100" lon="35.3287800">
<ele>40.779999</ele>
<time>2024-01-10T16:32:44.727Z</time>
</trkpt>
<trkpt lat="31.1600500" lon="35.3292400">
<ele>34.099998</ele>
<time>2024-01-10T16:32:44.727Z</time>
</trkpt>
<trkpt lat="31.1599200" lon="35.3293600">
<ele>33.020000</ele>
<time>2024-01-10T16:32:44.727Z</time>
</trkpt>
<trkpt lat="31.1598000" lon="35.3295200">
<ele>32.480000</ele>
<time>2024-01-10T16:32:44.727Z</time>
</trkpt>
<trkpt lat="31.1596900" lon="35.3297000">
<ele>32.470001</ele>
<time>2024-01-10T16:32:44.727Z</time>
</trkpt>
<trkpt lat="31.1593600" lon="35.3305400">
<ele>28.340000</ele>
<time>2024-01-10T16:32:44.727Z</time>
</trkpt>
<trkpt lat="31.1591000" lon="35.3312000">
<ele>24.640001</ele>
<time>2024-01-10T16:32:44.727Z</time>
</trkpt>
<trkpt lat="31.1588400" lon="35.3318700">
<ele>19.660000</ele>
<time>2024-01-10T16:32:44.727Z</time>
</trkpt>
<trkpt lat="31.1586400" lon="35.3324000">
<ele>14.710000</ele>
<time>2024-01-10T16:32:44.727Z</time>
</trkpt>
<trkpt lat="31.1584500" lon="35.3329300">
<ele>9.580000</ele>
<time>2024-01-10T16:32:44.727Z</time>
</trkpt>
<trkpt lat="31.1582500" lon="35.3334600">
<ele>4.660000</ele>
<time>2024-01-10T16:32:44.727Z</time>
</trkpt>
<trkpt lat="31.1581200" lon="35.3337100">
<ele>2.980000</ele>
<time>2024-01-10T16:32:44.727Z</time>
</trkpt>
<trkpt lat="31.1581200" lon="35.3337100">
<ele>2.980000</ele>
<time>2024-01-10T16:32:44.727Z</time>
</trkpt>
<trkpt lat="31.1581200" lon="35.3337100">
<ele>2.980000</ele>
<time>2024-01-10T16:32:44.727Z</time>
</trkpt>
<trkpt lat="31.1580000" lon="35.3338600">
<ele>2.790000</ele>
<time>2024-01-10T16:32:44.728Z</time>
</trkpt>
<trkpt lat="31.1578700" lon="35.3339900">
<ele>0.420000</ele>
<time>2024-01-10T16:32:44.728Z</time>
</trkpt>
<trkpt lat="31.1576700" lon="35.3341100">
<ele>-2.880000</ele>
<time>2024-01-10T16:32:44.728Z</time>
</trkpt>
<trkpt lat="31.1575700" lon="35.3341500">
<ele>-4.140000</ele>
<time>2024-01-10T16:32:44.728Z</time>
</trkpt>
<trkpt lat="31.1573300" lon="35.3341900">
<ele>-8.270000</ele>
<time>2024-01-10T16:32:44.728Z</time>
</trkpt>
<trkpt lat="31.1569900" lon="35.3341900">
<ele>-10.340000</ele>
<time>2024-01-10T16:32:44.728Z</time>
</trkpt>
<trkpt lat="31.1563100" lon="35.3340900">
<ele>-14.429999</ele>
<time>2024-01-10T16:32:44.728Z</time>
</trkpt>
<trkpt lat="31.1561200" lon="35.3340600">
<ele>-14.650000</ele>
<time>2024-01-10T16:32:44.728Z</time>
</trkpt>
<trkpt lat="31.1558200" lon="35.3339700">
<ele>-16.230000</ele>
<time>2024-01-10T16:32:44.728Z</time>
</trkpt>
<trkpt lat="31.1550500" lon="35.3335300">
<ele>-16.110001</ele>
<time>2024-01-10T16:32:44.728Z</time>
</trkpt>
<trkpt lat="31.1549000" lon="35.3334700">
<ele>-16.610001</ele>
<time>2024-01-10T16:32:44.728Z</time>
</trkpt>
<trkpt lat="31.1546800" lon="35.3334600">
<ele>-20.570000</ele>
<time>2024-01-10T16:32:44.728Z</time>
</trkpt>
<trkpt lat="31.1544800" lon="35.3335000">
<ele>-26.029999</ele>
<time>2024-01-10T16:32:44.728Z</time>
</trkpt>
<trkpt lat="31.1535700" lon="35.3339300">
<ele>-39.210003</ele>
<time>2024-01-10T16:32:44.728Z</time>
</trkpt>
<trkpt lat="31.1531300" lon="35.3340200">
<ele>-42.770000</ele>
<time>2024-01-10T16:32:44.728Z</time>
</trkpt>
<trkpt lat="31.1523900" lon="35.3341300">
<ele>-46.630001</ele>
<time>2024-01-10T16:32:44.728Z</time>
</trkpt>
<trkpt lat="31.1522700" lon="35.3341300">
<ele>-46.519997</ele>
<time>2024-01-10T16:32:44.728Z</time>
</trkpt>
<trkpt lat="31.1520400" lon="35.3340900">
<ele>-51.799999</ele>
<time>2024-01-10T16:32:44.728Z</time>
</trkpt>
<trkpt lat="31.1519500" lon="35.3340600">
<ele>-54.279999</ele>
<time>2024-01-10T16:32:44.728Z</time>
</trkpt>
<trkpt lat="31.1514100" lon="35.3338400">
<ele>-46.950001</ele>
<time>2024-01-10T16:32:44.728Z</time>
</trkpt>
<trkpt lat="31.1513900" lon="35.3338300">
<ele>-46.389999</ele>
<time>2024-01-10T16:32:44.728Z</time>
</trkpt>
<trkpt lat="31.1511400" lon="35.3337300">
<ele>-42.340000</ele>
<time>2024-01-10T16:32:44.728Z</time>
</trkpt>
<trkpt lat="31.1509000" lon="35.3336700">
<ele>-42.599998</ele>
<time>2024-01-10T16:32:44.728Z</time>
</trkpt>
<trkpt lat="31.1507500" lon="35.3336600">
<ele>-42.580002</ele>
<time>2024-01-10T16:32:44.728Z</time>
</trkpt>
<trkpt lat="31.1505300" lon="35.3337300">
<ele>-42.330002</ele>
<time>2024-01-10T16:32:44.728Z</time>
</trkpt>
<trkpt lat="31.1498900" lon="35.3339900">
<ele>-51.790001</ele>
<time>2024-01-10T16:32:44.728Z</time>
</trkpt>
<trkpt lat="31.1495800" lon="35.3340600">
<ele>-54.129997</ele>
<time>2024-01-10T16:32:44.728Z</time>
</trkpt>
<trkpt lat="31.1489000" lon="35.3341600">
<ele>-52.750000</ele>
<time>2024-01-10T16:32:44.728Z</time>
</trkpt>
<trkpt lat="31.1486000" lon="35.3342500">
<ele>-57.880001</ele>
<time>2024-01-10T16:32:44.729Z</time>
</trkpt>
<trkpt lat="31.1483700" lon="35.3344400">
<ele>-66.739998</ele>
<time>2024-01-10T16:32:44.729Z</time>
</trkpt>
<trkpt lat="31.1479900" lon="35.3349000">
<ele>-76.709999</ele>
<time>2024-01-10T16:32:44.729Z</time>
</trkpt>
<trkpt lat="31.1477700" lon="35.3351400">
<ele>-79.110001</ele>
<time>2024-01-10T16:32:44.729Z</time>
</trkpt>
<trkpt lat="31.1475900" lon="35.3352900">
<ele>-80.999992</ele>
<time>2024-01-10T16:32:44.729Z</time>
</trkpt>
<trkpt lat="31.1473400" lon="35.3354100">
<ele>-83.760002</ele>
<time>2024-01-10T16:32:44.729Z</time>
</trkpt>
<trkpt lat="31.1468000" lon="35.3355800">
<ele>-87.229996</ele>
<time>2024-01-10T16:32:44.729Z</time>
</trkpt>
<trkpt lat="31.1467900" lon="35.3355900">
<ele>-87.330002</ele>
<time>2024-01-10T16:32:44.729Z</time>
</trkpt>
<trkpt lat="31.1465000" lon="35.3356800">
<ele>-89.790001</ele>
<time>2024-01-10T16:32:44.729Z</time>
</trkpt>
<trkpt lat="31.1463000" lon="35.3357700">
<ele>-91.090004</ele>
<time>2024-01-10T16:32:44.729Z</time>
</trkpt>
<trkpt lat="31.1461800" lon="35.3358800">
<ele>-92.040001</ele>
<time>2024-01-10T16:32:44.729Z</time>
</trkpt>
<trkpt lat="31.1461200" lon="35.3360400">
<ele>-92.779999</ele>
<time>2024-01-10T16:32:44.729Z</time>
</trkpt>
<trkpt lat="31.1460900" lon="35.3361900">
<ele>-93.299995</ele>
<time>2024-01-10T16:32:44.729Z</time>
</trkpt>
<trkpt lat="31.1460900" lon="35.3363300">
<ele>-94.229996</ele>
<time>2024-01-10T16:32:44.729Z</time>
</trkpt>
<trkpt lat="31.1461300" lon="35.3365500">
<ele>-95.239998</ele>
<time>2024-01-10T16:32:44.729Z</time>
</trkpt>
<trkpt lat="31.1462700" lon="35.3371200">
<ele>-96.689995</ele>
<time>2024-01-10T16:32:44.729Z</time>
</trkpt>
<trkpt lat="31.1462700" lon="35.3373000">
<ele>-96.550003</ele>
<time>2024-01-10T16:32:44.729Z</time>
</trkpt>
<trkpt lat="31.1462400" lon="35.3375700">
<ele>-97.830002</ele>
<time>2024-01-10T16:32:44.729Z</time>
</trkpt>
<trkpt lat="31.1461600" lon="35.3377100">
<ele>-99.920006</ele>
<time>2024-01-10T16:32:44.729Z</time>
</trkpt>
<trkpt lat="31.1460900" lon="35.3378000">
<ele>-101.089996</ele>
<time>2024-01-10T16:32:44.729Z</time>
</trkpt>
<trkpt lat="31.1460300" lon="35.3378900">
<ele>-101.529999</ele>
<time>2024-01-10T16:32:44.729Z</time>
</trkpt>
<trkpt lat="31.1459000" lon="35.3380100">
<ele>-103.590004</ele>
<time>2024-01-10T16:32:44.729Z</time>
</trkpt>
<trkpt lat="31.1458600" lon="35.3380500">
<ele>-104.490005</ele>
<time>2024-01-10T16:32:44.729Z</time>
</trkpt>
<trkpt lat="31.1455800" lon="35.3383000">
<ele>-105.620003</ele>
<time>2024-01-10T16:32:44.729Z</time>
</trkpt>
<trkpt lat="31.1454400" lon="35.3384600">
<ele>-105.730003</ele>
<time>2024-01-10T16:32:44.729Z</time>
</trkpt>
<trkpt lat="31.1453800" lon="35.3386300">
<ele>-105.710007</ele>
<time>2024-01-10T16:32:44.729Z</time>
</trkpt>
<trkpt lat="31.1453900" lon="35.3388400">
<ele>-106.589996</ele>
<time>2024-01-10T16:32:44.729Z</time>
</trkpt>
<trkpt lat="31.1454500" lon="35.3390700">
<ele>-109.599998</ele>
<time>2024-01-10T16:32:44.729Z</time>
</trkpt>
<trkpt lat="31.1457300" lon="35.3396700">
<ele>-115.739998</ele>
<time>2024-01-10T16:32:44.730Z</time>
</trkpt>
<trkpt lat="31.1462800" lon="35.3410100">
<ele>-125.159996</ele>
<time>2024-01-10T16:32:44.730Z</time>
</trkpt>
<trkpt lat="31.1463300" lon="35.3411600">
<ele>-126.669998</ele>
<time>2024-01-10T16:32:44.730Z</time>
</trkpt>
<trkpt lat="31.1464300" lon="35.3414400">
<ele>-130.110001</ele>
<time>2024-01-10T16:32:44.730Z</time>
</trkpt>
<trkpt lat="31.1466000" lon="35.3420400">
<ele>-137.410004</ele>
<time>2024-01-10T16:32:44.730Z</time>
</trkpt>
<trkpt lat="31.1466800" lon="35.3423900">
<ele>-141.100006</ele>
<time>2024-01-10T16:32:44.730Z</time>
</trkpt>
<trkpt lat="31.1467300" lon="35.3426400">
<ele>-142.940002</ele>
<time>2024-01-10T16:32:44.730Z</time>
</trkpt>
<trkpt lat="31.1467600" lon="35.3428300">
<ele>-143.479996</ele>
<time>2024-01-10T16:32:44.730Z</time>
</trkpt>
<trkpt lat="31.1468400" lon="35.3432200">
<ele>-144.500000</ele>
<time>2024-01-10T16:32:44.730Z</time>
</trkpt>
<trkpt lat="31.1468800" lon="35.3434200">
<ele>-144.870010</ele>
<time>2024-01-10T16:32:44.730Z</time>
</trkpt>
<trkpt lat="31.1470200" lon="35.3440400">
<ele>-150.089996</ele>
<time>2024-01-10T16:32:44.730Z</time>
</trkpt>
<trkpt lat="31.1471300" lon="35.3445200">
<ele>-152.300003</ele>
<time>2024-01-10T16:32:44.730Z</time>
</trkpt>
<trkpt lat="31.1472400" lon="35.3450400">
<ele>-156.070007</ele>
<time>2024-01-10T16:32:44.730Z</time>
</trkpt>
<trkpt lat="31.1473400" lon="35.3454100">
<ele>-156.849991</ele>
<time>2024-01-10T16:32:44.730Z</time>
</trkpt>
<trkpt lat="31.1474200" lon="35.3456800">
<ele>-157.630005</ele>
<time>2024-01-10T16:32:44.730Z</time>
</trkpt>
<trkpt lat="31.1476100" lon="35.3461400">
<ele>-160.809998</ele>
<time>2024-01-10T16:32:44.730Z</time>
</trkpt>
<trkpt lat="31.1480500" lon="35.3472400">
<ele>-164.710007</ele>
<time>2024-01-10T16:32:44.730Z</time>
</trkpt>
<trkpt lat="31.1481500" lon="35.3475500">
<ele>-163.620010</ele>
<time>2024-01-10T16:32:44.730Z</time>
</trkpt>
<trkpt lat="31.1482200" lon="35.3478300">
<ele>-163.399994</ele>
<time>2024-01-10T16:32:44.730Z</time>
</trkpt>
<trkpt lat="31.1482700" lon="35.3481300">
<ele>-163.099991</ele>
<time>2024-01-10T16:32:44.730Z</time>
</trkpt>
<trkpt lat="31.1482900" lon="35.3484500">
<ele>-164.910004</ele>
<time>2024-01-10T16:32:44.730Z</time>
</trkpt>
<trkpt lat="31.1482900" lon="35.3487800">
<ele>-167.370010</ele>
<time>2024-01-10T16:32:44.730Z</time>
</trkpt>
<trkpt lat="31.1482300" lon="35.3493200">
<ele>-171.319992</ele>
<time>2024-01-10T16:32:44.730Z</time>
</trkpt>
<trkpt lat="31.1482300" lon="35.3493200">
<ele>-171.319992</ele>
<time>2024-01-10T16:32:44.730Z</time>
</trkpt>
<trkpt lat="31.1481400" lon="35.3500600">
<ele>-176.610001</ele>
<time>2024-01-10T16:32:44.730Z</time>
</trkpt>
<trkpt lat="31.1480700" lon="35.3503900">
<ele>-175.360001</ele>
<time>2024-01-10T16:32:44.730Z</time>
</trkpt>
<trkpt lat="31.1479500" lon="35.3506600">
<ele>-174.610001</ele>
<time>2024-01-10T16:32:44.730Z</time>
</trkpt>
<trkpt lat="31.1478900" lon="35.3507500">
<ele>-175.089996</ele>
<time>2024-01-10T16:32:44.731Z</time>
</trkpt>
<trkpt lat="31.1478400" lon="35.3508300">
<ele>-175.420013</ele>
<time>2024-01-10T16:32:44.731Z</time>
</trkpt>
<trkpt lat="31.1477300" lon="35.3509600">
<ele>-176.460007</ele>
<time>2024-01-10T16:32:44.731Z</time>
</trkpt>
<trkpt lat="31.1474900" lon="35.3511500">
<ele>-178.370010</ele>
<time>2024-01-10T16:32:44.731Z</time>
</trkpt>
<trkpt lat="31.1472500" lon="35.3512900">
<ele>-182.829987</ele>
<time>2024-01-10T16:32:44.731Z</time>
</trkpt>
<trkpt lat="31.1470400" lon="35.3514200">
<ele>-186.500000</ele>
<time>2024-01-10T16:32:44.731Z</time>
</trkpt>
<trkpt lat="31.1461600" lon="35.3518600">
<ele>-190.930008</ele>
<time>2024-01-10T16:32:44.731Z</time>
</trkpt>
<trkpt lat="31.1457200" lon="35.3520900">
<ele>-199.619995</ele>
<time>2024-01-10T16:32:44.731Z</time>
</trkpt>
<trkpt lat="31.1454800" lon="35.3522600">
<ele>-202.969986</ele>
<time>2024-01-10T16:32:44.731Z</time>
</trkpt>
<trkpt lat="31.1453100" lon="35.3524400">
<ele>-201.230011</ele>
<time>2024-01-10T16:32:44.731Z</time>
</trkpt>
<trkpt lat="31.1447500" lon="35.3531300">
<ele>-213.309998</ele>
<time>2024-01-10T16:32:44.731Z</time>
</trkpt>
<trkpt lat="31.1445200" lon="35.3533000">
<ele>-215.270004</ele>
<time>2024-01-10T16:32:44.731Z</time>
</trkpt>
<trkpt lat="31.1436000" lon="35.3538500">
<ele>-226.500000</ele>
<time>2024-01-10T16:32:44.731Z</time>
</trkpt>
<trkpt lat="31.1427100" lon="35.3543200">
<ele>-229.149994</ele>
<time>2024-01-10T16:32:44.731Z</time>
</trkpt>
<trkpt lat="31.1425600" lon="35.3543800">
<ele>-230.380005</ele>
<time>2024-01-10T16:32:44.731Z</time>
</trkpt>
<trkpt lat="31.1421200" lon="35.3544800">
<ele>-236.070007</ele>
<time>2024-01-10T16:32:44.731Z</time>
</trkpt>
<trkpt lat="31.1407900" lon="35.3545900">
<ele>-248.110016</ele>
<time>2024-01-10T16:32:44.731Z</time>
</trkpt>
<trkpt lat="31.1401500" lon="35.3546900">
<ele>-253.430008</ele>
<time>2024-01-10T16:32:44.731Z</time>
</trkpt>
<trkpt lat="31.1380400" lon="35.3554000">
<ele>-267.950012</ele>
<time>2024-01-10T16:32:44.731Z</time>
</trkpt>
<trkpt lat="31.1378700" lon="35.3555000">
<ele>-270.739990</ele>
<time>2024-01-10T16:32:44.731Z</time>
</trkpt>
<trkpt lat="31.1377500" lon="35.3556300">
<ele>-273.619995</ele>
<time>2024-01-10T16:32:44.731Z</time>
</trkpt>
<trkpt lat="31.1376600" lon="35.3558300">
<ele>-276.100006</ele>
<time>2024-01-10T16:32:44.731Z</time>
</trkpt>
<trkpt lat="31.1376300" lon="35.3560700">
<ele>-277.910004</ele>
<time>2024-01-10T16:32:44.731Z</time>
</trkpt>
<trkpt lat="31.1376600" lon="35.3563200">
<ele>-279.000000</ele>
<time>2024-01-10T16:32:44.731Z</time>
</trkpt>
<trkpt lat="31.1376900" lon="35.3564000">
<ele>-279.380005</ele>
<time>2024-01-10T16:32:44.731Z</time>
</trkpt>
<trkpt lat="31.1377300" lon="35.3564700">
<ele>-279.559998</ele>
<time>2024-01-10T16:32:44.731Z</time>
</trkpt>
<trkpt lat="31.1378000" lon="35.3565700">
<ele>-279.559998</ele>
<time>2024-01-10T16:32:44.731Z</time>
</trkpt>
<trkpt lat="31.1379100" lon="35.3566700">
<ele>-280.580017</ele>
<time>2024-01-10T16:32:44.731Z</time>
</trkpt>
<trkpt lat="31.1379600" lon="35.3567000">
<ele>-281.739990</ele>
<time>2024-01-10T16:32:44.732Z</time>
</trkpt>
<trkpt lat="31.1379600" lon="35.3567000">
<ele>-281.739990</ele>
<time>2024-01-10T16:32:44.732Z</time>
</trkpt>
<trkpt lat="31.1379600" lon="35.3567000">
<ele>-281.739990</ele>
<time>2024-01-10T16:32:44.732Z</time>
</trkpt>
<trkpt lat="31.1379600" lon="35.3567000">
<ele>-281.739990</ele>
<time>2024-01-10T16:32:44.732Z</time>
</trkpt>
<trkpt lat="31.1383200" lon="35.3569600">
<ele>-288.320007</ele>
<time>2024-01-10T16:32:44.732Z</time>
</trkpt>
<trkpt lat="31.1384100" lon="35.3571600">
<ele>-290.119995</ele>
<time>2024-01-10T16:32:44.732Z</time>
</trkpt>
<trkpt lat="31.1384200" lon="35.3573400">
<ele>-291.179993</ele>
<time>2024-01-10T16:32:44.732Z</time>
</trkpt>
<trkpt lat="31.1384100" lon="35.3574900">
<ele>-291.860016</ele>
<time>2024-01-10T16:32:44.732Z</time>
</trkpt>
<trkpt lat="31.1382400" lon="35.3583100">
<ele>-297.299988</ele>
<time>2024-01-10T16:32:44.732Z</time>
</trkpt>
<trkpt lat="31.1382400" lon="35.3585700">
<ele>-297.329987</ele>
<time>2024-01-10T16:32:44.732Z</time>
</trkpt>
<trkpt lat="31.1383200" lon="35.3587600">
<ele>-294.790009</ele>
<time>2024-01-10T16:32:44.732Z</time>
</trkpt>
<trkpt lat="31.1384600" lon="35.3588700">
<ele>-293.559998</ele>
<time>2024-01-10T16:32:44.732Z</time>
</trkpt>
<trkpt lat="31.1387200" lon="35.3590100">
<ele>-296.959991</ele>
<time>2024-01-10T16:32:44.732Z</time>
</trkpt>
<trkpt lat="31.1391800" lon="35.3591800">
<ele>-301.859985</ele>
<time>2024-01-10T16:32:44.732Z</time>
</trkpt>
<trkpt lat="31.1410200" lon="35.3597700">
<ele>-332.239990</ele>
<time>2024-01-10T16:32:44.732Z</time>
</trkpt>
<trkpt lat="31.1411400" lon="35.3598200">
<ele>-332.980011</ele>
<time>2024-01-10T16:32:44.732Z</time>
</trkpt>
<trkpt lat="31.1412700" lon="35.3599800">
<ele>-333.719971</ele>
<time>2024-01-10T16:32:44.732Z</time>
</trkpt>
<trkpt lat="31.1413300" lon="35.3601300">
<ele>-333.419983</ele>
<time>2024-01-10T16:32:44.732Z</time>
</trkpt>
<trkpt lat="31.1413800" lon="35.3602500">
<ele>-333.059998</ele>
<time>2024-01-10T16:32:44.732Z</time>
</trkpt>
<trkpt lat="31.1413400" lon="35.3604600">
<ele>-333.889984</ele>
<time>2024-01-10T16:32:44.732Z</time>
</trkpt>
<trkpt lat="31.1413400" lon="35.3606200">
<ele>-333.360016</ele>
<time>2024-01-10T16:32:44.732Z</time>
</trkpt>
<trkpt lat="31.1413700" lon="35.3607700">
<ele>-331.589996</ele>
<time>2024-01-10T16:32:44.732Z</time>
</trkpt>
<trkpt lat="31.1414100" lon="35.3608600">
<ele>-331.320007</ele>
<time>2024-01-10T16:32:44.732Z</time>
</trkpt>
<trkpt lat="31.1415500" lon="35.3610400">
<ele>-333.480011</ele>
<time>2024-01-10T16:32:44.732Z</time>
</trkpt>
<trkpt lat="31.1416900" lon="35.3611500">
<ele>-335.630005</ele>
<time>2024-01-10T16:32:44.732Z</time>
</trkpt>
<trkpt lat="31.1422200" lon="35.3614600">
<ele>-356.960022</ele>
<time>2024-01-10T16:32:44.732Z</time>
</trkpt>
<trkpt lat="31.1424100" lon="35.3616100">
<ele>-358.519989</ele>
<time>2024-01-10T16:32:44.732Z</time>
</trkpt>
<trkpt lat="31.1424900" lon="35.3616800">
<ele>-358.020020</ele>
<time>2024-01-10T16:32:44.732Z</time>
</trkpt>
<trkpt lat="31.1425600" lon="35.3617900">
<ele>-357.320007</ele>
<time>2024-01-10T16:32:44.733Z</time>
</trkpt>
<trkpt lat="31.1426400" lon="35.3619500">
<ele>-356.970001</ele>
<time>2024-01-10T16:32:44.733Z</time>
</trkpt>
<trkpt lat="31.1428200" lon="35.3624200">
<ele>-355.849976</ele>
<time>2024-01-10T16:32:44.733Z</time>
</trkpt>
<trkpt lat="31.1434900" lon="35.3642100">
<ele>-371.750000</ele>
<time>2024-01-10T16:32:44.733Z</time>
</trkpt>
<trkpt lat="31.1435400" lon="35.3643500">
<ele>-372.580017</ele>
<time>2024-01-10T16:32:44.733Z</time>
</trkpt>
<trkpt lat="31.1441200" lon="35.3659100">
<ele>-381.669983</ele>
<time>2024-01-10T16:32:44.733Z</time>
</trkpt>
<trkpt lat="31.1443000" lon="35.3663100">
<ele>-383.100006</ele>
<time>2024-01-10T16:32:44.733Z</time>
</trkpt>
<trkpt lat="31.1444900" lon="35.3666700">
<ele>-383.169983</ele>
<time>2024-01-10T16:32:44.733Z</time>
</trkpt>
<trkpt lat="31.1446200" lon="35.3668800">
<ele>-383.910004</ele>
<time>2024-01-10T16:32:44.733Z</time>
</trkpt>
<trkpt lat="31.1447900" lon="35.3671200">
<ele>-385.989990</ele>
<time>2024-01-10T16:32:44.733Z</time>
</trkpt>
<trkpt lat="31.1450300" lon="35.3674200">
<ele>-387.459991</ele>
<time>2024-01-10T16:32:44.733Z</time>
</trkpt>
<trkpt lat="31.1451900" lon="35.3675900">
<ele>-387.720001</ele>
<time>2024-01-10T16:32:44.733Z</time>
</trkpt>
<trkpt lat="31.1453300" lon="35.3677200">
<ele>-389.509979</ele>
<time>2024-01-10T16:32:44.733Z</time>
</trkpt>
<trkpt lat="31.1456000" lon="35.3679800">
<ele>-391.980011</ele>
<time>2024-01-10T16:32:44.733Z</time>
</trkpt>
<trkpt lat="31.1470100" lon="35.3693000">
<ele>-392.940002</ele>
<time>2024-01-10T16:32:44.733Z</time>
</trkpt>
<trkpt lat="31.1476500" lon="35.3699200">
<ele>-394.580017</ele>
<time>2024-01-10T16:32:44.733Z</time>
</trkpt>
<trkpt lat="31.1476900" lon="35.3698500">
<ele>-393.919983</ele>
<time>2024-01-10T16:32:44.733Z</time>
</trkpt>
<trkpt lat="31.1478000" lon="35.3697900">
<ele>-392.899994</ele>
<time>2024-01-10T16:32:44.733Z</time>
</trkpt>
<trkpt lat="31.1478800" lon="35.3697700">
<ele>-392.450012</ele>
<time>2024-01-10T16:32:44.733Z</time>
</trkpt>
</trkseg>
</trk>
</gpx>
